GFSGL_prec_precacc_093.txt.gz
Total_Precipitation_Accumulation
0.01 0.01 0.01 0.01 0.02 0.02 0.01 0.02 0.00 0.01 0.05 0.08 0.30 0.16 0.13 0.06 0.04 0.10 0.06 0.06 0.10 0.04 0.03 0.04 0.02 0.02 0.01 0.01 0.01 0.00 0.00 0.01 0.00 0.00 0.00 0.00 0.00 0.00 0.00 0.00 0.00 0.00 0.00
0.16 0.09 0.05 0.05 0.05 0.01 0.04 0.02 0.00 0.02 0.03 0.06 0.07 0.25 0.13 0.06 0.07 0.09 0.03 0.05 0.12 0.05 0.01 0.03 0.02 0.00 0.03 0.01 0.01 0.00 0.01 0.01 0.01 0.00 0.00 0.00 0.00 0.00 0.00 0.00 0.00 0.00 0.00
0.31 0.33 0.34 0.26 0.19 0.11 0.07 0.09 0.05 0.04 0.02 0.02 0.01 0.08 0.10 0.03 0.04 0.05 0.10 0.16 0.09 0.05 0.03 0.04 0.01 0.01 0.05 0.02 0.03 0.01 0.00 0.01 0.03 0.03 0.00 0.00 0.00 0.00 0.00 0.00 0.00 0.00 0.00
0.74 0.92 0.60 0.41 0.25 0.18 0.26 0.27 0.15 0.08 0.05 0.03 0.02 0.01 0.03 0.03 0.02 0.02 0.09 0.25 0.09 0.08 0.11 0.08 0.05 0.05 0.05 0.06 0.02 0.03 0.02 0.04 0.03 0.04 0.03 0.01 0.00 0.00 0.00 0.00 0.00 0.00 0.00
0.82 1.03 1.11 0.77 0.58 0.57 0.61 0.67 0.59 0.45 0.28 0.14 0.06 0.01 0.00 0.01 0.01 0.01 0.03 0.07 0.17 0.17 0.14 0.16 0.12 0.20 0.10 0.06 0.07 0.05 0.05 0.04 0.04 0.09 0.08 0.02 0.01 0.02 0.03 0.01 0.00 0.00 0.00
0.80 0.80 0.63 0.49 0.59 0.78 0.96 1.29 0.79 0.59 0.53 0.44 0.21 0.23 0.14 0.05 0.08 0.07 0.05 0.14 0.18 0.27 0.22 0.17 0.15 0.14 0.14 0.17 0.16 0.05 0.10 0.11 0.22 0.21 0.10 0.06 0.06 0.06 0.07 0.05 0.02 0.01 0.01
0.33 0.66 0.77 0.70 0.76 0.75 0.74 0.84 0.90 1.01 0.73 0.58 0.43 0.41 0.27 0.33 0.43 0.25 0.27 0.17 0.22 0.24 0.19 0.18 0.14 0.08 0.13 0.06 0.14 0.20 0.23 0.23 0.21 0.20 0.08 0.09 0.11 0.12 0.13 0.08 0.07 0.08 0.04
0.13 0.16 0.40 0.58 0.82 0.78 0.72 0.52 0.56 0.55 0.45 0.36 0.42 0.50 0.54 0.44 0.41 0.43 0.59 0.24 0.14 0.14 0.19 0.19 0.14 0.16 0.21 0.15 0.23 0.20 0.17 0.16 0.26 0.23 0.12 0.07 0.10 0.09 0.07 0.08 0.13 0.08 0.06
0.03 0.10 0.09 0.08 0.26 0.34 0.44 0.54 0.43 0.42 0.33 0.29 0.54 0.79 0.57 0.46 0.44 0.34 0.40 0.48 0.20 0.20 0.27 0.19 0.17 0.17 0.29 0.34 0.24 0.24 0.12 0.09 0.17 0.16 0.06 0.05 0.07 0.11 0.07 0.05 0.08 0.14 0.10
0.13 0.22 0.24 0.18 0.18 0.15 0.16 0.27 0.40 0.44 0.50 0.38 0.27 0.29 0.33 0.38 0.45 0.37 0.36 0.22 0.17 0.19 0.24 0.26 0.26 0.11 0.29 0.33 0.19 0.19 0.10 0.13 0.13 0.12 0.09 0.05 0.06 0.08 0.11 0.08 0.14 0.22 0.17
0.15 0.14 0.14 0.17 0.26 0.24 0.25 0.42 0.55 0.54 0.42 0.31 0.33 0.53 0.46 0.40 0.47 0.51 0.43 0.33 0.25 0.23 0.28 0.34 0.30 0.37 0.37 0.41 0.30 0.24 0.20 0.17 0.19 0.09 0.10 0.11 0.10 0.08 0.19 0.23 0.22 0.32 0.26
0.08 0.18 0.17 0.13 0.21 0.27 0.38 0.47 0.33 0.27 0.40 0.49 0.61 0.50 0.48 0.61 0.54 0.46 0.47 0.36 0.35 0.20 0.18 0.26 0.36 0.36 0.45 0.46 0.47 0.46 0.36 0.20 0.11 0.12 0.10 0.10 0.11 0.11 0.18 0.27 0.46 0.45 0.47
0.11 0.08 0.09 0.07 0.13 0.25 0.31 0.33 0.32 0.30 0.30 0.27 0.30 0.33 0.41 0.52 0.45 0.55 0.68 0.49 0.42 0.30 0.25 0.32 0.33 0.39 0.36 0.33 0.32 0.29 0.28 0.22 0.18 0.20 0.16 0.15 0.14 0.21 0.24 0.40 0.42 0.36 0.44
0.14 0.11 0.09 0.04 0.05 0.10 0.25 0.33 0.19 0.27 0.30 0.36 0.44 0.56 0.63 0.60 0.44 0.46 0.68 0.76 0.71 0.50 0.47 0.34 0.34 0.30 0.29 0.24 0.26 0.26 0.20 0.22 0.21 0.19 0.18 0.21 0.33 0.47 0.49 0.53 0.50 0.62 0.67
0.06 0.19 0.24 0.23 0.20 0.23 0.27 0.38 0.49 0.62 0.56 0.65 0.75 0.83 0.76 0.67 0.76 1.04 1.17 1.24 1.32 1.48 1.41 0.94 0.80 0.61 0.57 0.40 0.33 0.30 0.27 0.24 0.25 0.47 0.68 0.81 0.80 0.87 0.74 0.82 0.93 1.08 1.20
0.25 0.41 0.52 0.58 0.66 0.69 0.75 0.85 1.04 0.99 0.94 1.09 1.17 1.11 1.45 2.02 2.64 2.56 3.00 3.25 3.05 2.82 2.39 1.81 1.40 0.89 0.69 0.69 0.73 0.59 0.46 0.40 0.42 0.81 0.99 0.97 0.99 0.91 0.83 0.92 0.94 0.84 0.82
0.35 0.26 0.23 0.37 0.64 0.72 0.84 0.84 0.85 1.02 1.03 1.06 1.31 1.43 1.41 1.20 1.14 1.31 1.65 1.72 1.65 1.41 0.85 0.55 0.48 0.47 0.52 0.71 0.78 0.70 0.64 0.56 0.72 1.03 1.17 1.05 0.97 0.90 0.99 0.91 0.93 0.92 0.85
0.77 0.97 0.95 0.74 0.68 0.57 0.63 0.71 0.94 1.01 0.95 0.80 0.62 0.63 0.51 0.53 0.76 0.86 1.05 0.81 0.45 0.43 0.28 0.36 0.27 0.36 0.37 0.35 0.39 0.44 0.43 0.55 0.80 1.00 1.00 0.90 1.00 1.02 0.88 0.78 0.97 1.07 1.03
1.28 0.90 1.01 1.40 1.53 1.32 1.23 1.04 0.62 0.39 0.40 0.34 0.36 0.44 0.54 0.57 0.74 0.77 0.72 0.46 0.40 0.37 0.47 0.49 0.52 0.72 0.70 0.65 0.69 0.64 0.63 0.99 1.26 1.54 1.81 1.82 1.94 2.24 2.34 2.54 3.13 3.81 3.75
1.74 2.34 1.99 1.76 1.84 1.84 1.85 1.96 1.75 1.40 1.27 1.01 0.92 0.82 0.87 0.92 0.82 0.87 0.85 0.96 0.85 0.90 1.10 1.08 1.04 1.08 1.12 1.12 1.33 1.47 1.44 1.64 1.74 2.05 2.28 2.38 2.77 3.27 3.58 3.80 3.49 3.02 2.56
1.40 1.34 1.45 1.44 1.80 2.03 2.03 2.15 2.15 2.09 2.07 2.02 2.09 2.14 2.31 2.19 1.73 1.67 1.73 1.80 1.59 1.60 1.98 2.28 2.67 3.20 3.36 3.49 3.55 3.61 3.44 3.41 3.42 3.45 3.96 4.11 4.02 3.87 3.69 3.01 2.46 2.32 2.17
0.55 0.89 1.08 1.30 0.84 0.78 0.79 0.74 0.88 0.93 0.98 1.15 1.14 1.33 1.61 1.59 1.38 1.51 1.49 1.44 1.46 1.65 1.92 1.98 2.05 2.16 2.28 2.50 2.49 2.11 1.77 1.99 2.13 2.26 2.30 2.34 2.30 2.37 2.59 2.42 2.03 1.77 1.63
0.28 0.40 0.48 0.80 1.32 1.29 1.40 1.25 1.05 0.74 0.71 0.73 0.88 0.66 0.43 0.46 0.41 0.43 0.43 0.43 0.44 0.42 0.55 0.53 0.51 0.44 0.32 0.31 0.35 0.32 0.26 0.27 0.31 0.43 0.51 0.62 0.77 0.80 0.85 0.75 0.69 0.63 0.63
0.12 0.49 0.87 0.70 0.64 0.67 0.64 1.15 1.93 2.20 1.91 1.64 1.32 1.20 1.13 0.82 0.71 0.78 0.82 0.64 0.57 0.55 0.45 0.44 0.33 0.31 0.25 0.28 0.31 0.31 0.29 0.38 0.40 0.31 0.27 0.30 0.29 0.40 0.30 0.34 0.39 0.39 0.41
0.12 0.16 0.43 0.94 1.08 0.93 0.95 0.89 0.73 0.72 0.89 1.13 1.36 1.22 1.15 1.08 0.94 0.82 0.70 0.64 0.65 0.75 0.58 0.50 0.42 0.38 0.34 0.28 0.23 0.20 0.27 0.32 0.27 0.34 0.30 0.26 0.25 0.25 0.27 0.25 0.23 0.25 0.21
0.18 0.19 0.21 0.26 0.46 0.62 0.72 0.85 1.21 1.43 0.99 0.69 0.70 0.81 0.99 1.04 0.94 0.85 0.83 0.85 0.80 0.78 0.79 0.74 0.69 0.62 0.54 0.51 0.48 0.47 0.39 0.30 0.29 0.31 0.26 0.21 0.22 0.25 0.25 0.23 0.23 0.24 0.24

GFSGL_prec_precacc_096.txt.gz
Total_Precipitation_Accumulation
0.01 0.01 0.01 0.01 0.02 0.02 0.02 0.02 0.03 0.05 0.14 0.18 0.35 0.25 0.17 0.07 0.04 0.11 0.08 0.07 0.11 0.04 0.03 0.05 0.03 0.02 0.01 0.01 0.01 0.01 0.00 0.01 0.00 0.00 0.00 0.00 0.00 0.00 0.00 0.00 0.00 0.00 0.00
0.20 0.10 0.05 0.05 0.05 0.02 0.07 0.03 0.00 0.03 0.07 0.14 0.11 0.30 0.17 0.08 0.07 0.09 0.05 0.07 0.19 0.08 0.02 0.05 0.07 0.01 0.03 0.01 0.01 0.00 0.01 0.01 0.01 0.00 0.00 0.00 0.00 0.00 0.00 0.00 0.00 0.00 0.00
0.42 0.38 0.34 0.26 0.19 0.12 0.07 0.10 0.05 0.05 0.05 0.05 0.05 0.17 0.23 0.06 0.04 0.06 0.14 0.19 0.14 0.09 0.10 0.07 0.06 0.02 0.06 0.02 0.03 0.01 0.00 0.01 0.03 0.03 0.00 0.00 0.00 0.00 0.00 0.00 0.00 0.00 0.00
0.85 0.99 0.63 0.41 0.25 0.18 0.26 0.27 0.16 0.09 0.06 0.05 0.04 0.02 0.07 0.06 0.03 0.02 0.09 0.26 0.10 0.10 0.16 0.12 0.08 0.06 0.08 0.09 0.04 0.05 0.02 0.04 0.03 0.04 0.03 0.01 0.00 0.00 0.00 0.00 0.00 0.00 0.00
0.92 1.08 1.13 0.77 0.58 0.57 0.62 0.68 0.60 0.45 0.28 0.16 0.07 0.01 0.01 0.01 0.01 0.01 0.03 0.08 0.17 0.17 0.14 0.16 0.14 0.22 0.12 0.10 0.09 0.06 0.06 0.05 0.04 0.09 0.08 0.02 0.01 0.02 0.03 0.01 0.00 0.00 0.00
0.83 0.87 0.67 0.50 0.59 0.78 0.96 1.29 0.81 0.59 0.54 0.47 0.24 0.26 0.19 0.10 0.14 0.10 0.08 0.15 0.18 0.27 0.22 0.17 0.15 0.14 0.16 0.21 0.17 0.07 0.12 0.11 0.22 0.21 0.10 0.06 0.06 0.06 0.07 0.05 0.02 0.01 0.01
0.34 0.69 0.80 0.73 0.78 0.75 0.74 0.85 0.91 1.04 0.79 0.66 0.53 0.48 0.34 0.43 0.52 0.30 0.34 0.23 0.25 0.26 0.21 0.19 0.14 0.09 0.14 0.07 0.16 0.21 0.23 0.24 0.21 0.20 0.08 0.09 0.11 0.12 0.13 0.08 0.07 0.08 0.04
0.13 0.16 0.40 0.60 0.83 0.80 0.73 0.53 0.57 0.56 0.47 0.40 0.51 0.62 0.69 0.62 0.51 0.53 0.70 0.33 0.20 0.27 0.28 0.24 0.15 0.19 0.23 0.16 0.23 0.20 0.17 0.16 0.26 0.23 0.12 0.07 0.10 0.09 0.07 0.08 0.13 0.08 0.06
0.03 0.12 0.10 0.09 0.27 0.35 0.46 0.57 0.46 0.46 0.38 0.32 0.56 0.82 0.58 0.48 0.50 0.45 0.54 0.60 0.31 0.26 0.39 0.30 0.25 0.24 0.37 0.39 0.25 0.24 0.12 0.09 0.17 0.16 0.06 0.05 0.07 0.11 0.07 0.05 0.08 0.14 0.10
0.13 0.22 0.24 0.18 0.18 0.15 0.16 0.28 0.41 0.46 0.53 0.43 0.31 0.31 0.34 0.40 0.47 0.45 0.47 0.29 0.27 0.27 0.28 0.34 0.37 0.18 0.44 0.43 0.22 0.20 0.10 0.14 0.14 0.12 0.09 0.05 0.06 0.08 0.11 0.08 0.14 0.22 0.17
0.15 0.14 0.14 0.17 0.26 0.24 0.25 0.42 0.55 0.54 0.42 0.33 0.35 0.54 0.47 0.42 0.50 0.53 0.46 0.35 0.28 0.25 0.30 0.35 0.31 0.43 0.44 0.49 0.35 0.27 0.20 0.17 0.19 0.09 0.10 0.11 0.10 0.08 0.19 0.23 0.22 0.32 0.26
0.08 0.18 0.17 0.13 0.21 0.27 0.38 0.47 0.33 0.27 0.40 0.49 0.61 0.50 0.48 0.61 0.54 0.47 0.50 0.38 0.35 0.20 0.18 0.27 0.37 0.37 0.48 0.49 0.49 0.47 0.36 0.20 0.11 0.12 0.10 0.10 0.11 0.11 0.18 0.27 0.46 0.45 0.47
0.11 0.08 0.09 0.07 0.13 0.25 0.31 0.33 0.32 0.30 0.30 0.27 0.30 0.33 0.41 0.52 0.45 0.55 0.68 0.49 0.42 0.30 0.26 0.32 0.34 0.40 0.37 0.34 0.32 0.30 0.28 0.22 0.18 0.20 0.16 0.16 0.15 0.21 0.24 0.40 0.42 0.37 0.44
0.14 0.11 0.09 0.04 0.05 0.10 0.25 0.33 0.19 0.27 0.30 0.36 0.44 0.56 0.63 0.60 0.44 0.46 0.68 0.76 0.71 0.50 0.47 0.34 0.34 0.30 0.29 0.24 0.26 0.26 0.20 0.22 0.21 0.19 0.18 0.21 0.33 0.47 0.50 0.54 0.50 0.64 0.67
0.06 0.19 0.24 0.23 0.20 0.23 0.27 0.38 0.49 0.62 0.56 0.65 0.75 0.83 0.76 0.67 0.76 1.04 1.17 1.24 1.32 1.48 1.41 0.94 0.80 0.61 0.57 0.40 0.33 0.30 0.27 0.24 0.25 0.47 0.68 0.81 0.81 0.87 0.75 0.82 0.93 1.09 1.21
0.25 0.41 0.52 0.58 0.66 0.69 0.75 0.85 1.04 0.99 0.94 1.09 1.17 1.11 1.45 2.02 2.64 2.56 3.00 3.25 3.05 2.82 2.39 1.81 1.40 0.89 0.69 0.69 0.73 0.59 0.46 0.40 0.42 0.81 0.99 0.98 0.99 0.91 0.84 0.93 0.95 0.85 0.83
0.35 0.26 0.23 0.37 0.64 0.72 0.84 0.84 0.85 1.02 1.03 1.06 1.31 1.43 1.41 1.20 1.14 1.31 1.65 1.72 1.65 1.41 0.85 0.55 0.48 0.47 0.52 0.71 0.78 0.70 0.64 0.56 0.73 1.04 1.18 1.06 0.98 0.91 1.00 0.92 0.94 0.94 0.87
0.77 0.97 0.95 0.74 0.68 0.57 0.63 0.71 0.94 1.01 0.95 0.80 0.62 0.63 0.51 0.53 0.76 0.86 1.05 0.81 0.45 0.43 0.28 0.36 0.27 0.36 0.37 0.35 0.40 0.44 0.43 0.56 0.80 1.00 1.01 0.90 1.00 1.02 0.88 0.78 0.97 1.08 1.03
1.28 0.90 1.01 1.40 1.53 1.32 1.23 1.04 0.62 0.39 0.40 0.34 0.36 0.44 0.54 0.57 0.74 0.77 0.72 0.46 0.40 0.37 0.47 0.49 0.52 0.72 0.70 0.65 0.69 0.64 0.63 1.00 1.26 1.55 1.82 1.82 1.95 2.25 2.34 2.54 3.13 3.82 3.75
1.74 2.34 1.99 1.76 1.84 1.84 1.85 1.96 1.75 1.40 1.27 1.01 0.92 0.82 0.87 0.92 0.82 0.87 0.85 0.96 0.85 0.90 1.10 1.08 1.04 1.08 1.12 1.12 1.33 1.47 1.45 1.64 1.74 2.05 2.28 2.38 2.77 3.27 3.59 3.80 3.49 3.02 2.57
1.40 1.34 1.45 1.44 1.80 2.03 2.03 2.15 2.15 2.09 2.07 2.02 2.09 2.14 2.31 2.19 1.73 1.67 1.73 1.80 1.59 1.60 1.98 2.28 2.67 3.20 3.36 3.49 3.55 3.61 3.44 3.41 3.42 3.45 3.97 4.11 4.03 3.87 3.70 3.01 2.46 2.32 2.17
0.55 0.89 1.08 1.30 0.84 0.78 0.79 0.74 0.88 0.93 0.98 1.15 1.14 1.33 1.61 1.59 1.38 1.51 1.49 1.44 1.46 1.65 1.92 1.98 2.05 2.16 2.28 2.50 2.49 2.12 1.77 2.00 2.13 2.27 2.31 2.34 2.31 2.38 2.59 2.43 2.04 1.78 1.64
0.28 0.40 0.48 0.80 1.32 1.29 1.40 1.25 1.05 0.74 0.71 0.73 0.88 0.66 0.43 0.46 0.41 0.43 0.43 0.43 0.44 0.42 0.55 0.53 0.51 0.44 0.32 0.31 0.35 0.32 0.26 0.28 0.32 0.45 0.53 0.63 0.78 0.81 0.86 0.76 0.69 0.63 0.64
0.12 0.49 0.87 0.70 0.64 0.67 0.64 1.15 1.93 2.20 1.91 1.64 1.32 1.20 1.13 0.82 0.71 0.78 0.82 0.64 0.57 0.55 0.45 0.44 0.33 0.31 0.25 0.28 0.31 0.31 0.30 0.39 0.41 0.31 0.28 0.31 0.30 0.42 0.32 0.35 0.39 0.39 0.41
0.12 0.16 0.43 0.94 1.08 0.93 0.95 0.89 0.73 0.72 0.89 1.13 1.36 1.22 1.15 1.08 0.94 0.82 0.70 0.64 0.65 0.75 0.58 0.50 0.42 0.38 0.34 0.28 0.23 0.21 0.27 0.32 0.27 0.34 0.30 0.26 0.25 0.26 0.28 0.26 0.23 0.25 0.21
0.18 0.19 0.21 0.26 0.46 0.62 0.72 0.85 1.21 1.43 0.99 0.69 0.70 0.81 0.99 1.04 0.94 0.85 0.83 0.85 0.80 0.78 0.80 0.74 0.69 0.62 0.55 0.51 0.49 0.47 0.40 0.30 0.29 0.31 0.26 0.21 0.22 0.25 0.25 0.23 0.23 0.24 0.24

GFSGL_prec_precacc_102.txt.gz
Total_Precipitation_Accumulation
0.01 0.01 0.10 0.06 0.07 0.05 0.09 0.09 0.13 0.24 0.32 0.27 0.47 0.28 0.24 0.17 0.14 0.14 0.11 0.07 0.15 0.07 0.05 0.06 0.04 0.02 0.01 0.01 0.01 0.01 0.00 0.01 0.00 0.00 0.00 0.00 0.00 0.00 0.00 0.00 0.00 0.00 0.00
0.27 0.10 0.16 0.14 0.09 0.04 0.12 0.08 0.09 0.16 0.18 0.24 0.22 0.39 0.30 0.19 0.18 0.17 0.10 0.11 0.26 0.15 0.07 0.09 0.10 0.03 0.06 0.01 0.01 0.01 0.01 0.01 0.01 0.00 0.00 0.00 0.00 0.00 0.00 0.00 0.00 0.00 0.00
0.59 0.59 0.64 0.41 0.22 0.12 0.07 0.10 0.12 0.16 0.10 0.10 0.09 0.26 0.31 0.11 0.15 0.18 0.23 0.24 0.22 0.19 0.16 0.15 0.15 0.08 0.13 0.05 0.08 0.05 0.01 0.02 0.05 0.03 0.00 0.00 0.00 0.00 0.00 0.00 0.00 0.00 0.00
1.02 1.12 0.76 0.53 0.29 0.20 0.26 0.28 0.17 0.17 0.10 0.07 0.05 0.05 0.14 0.14 0.09 0.12 0.14 0.31 0.17 0.19 0.29 0.21 0.18 0.13 0.17 0.18 0.09 0.13 0.05 0.09 0.07 0.07 0.03 0.01 0.00 0.00 0.00 0.00 0.00 0.00 0.00
1.51 1.45 1.27 0.83 0.62 0.58 0.62 0.68 0.60 0.45 0.29 0.17 0.09 0.03 0.04 0.05 0.03 0.02 0.03 0.08 0.17 0.21 0.27 0.27 0.23 0.32 0.21 0.21 0.22 0.25 0.15 0.11 0.09 0.11 0.08 0.02 0.01 0.02 0.03 0.01 0.00 0.00 0.00
1.19 1.24 0.97 0.65 0.66 0.80 0.98 1.30 0.81 0.59 0.54 0.47 0.24 0.27 0.21 0.11 0.15 0.10 0.08 0.17 0.22 0.30 0.28 0.28 0.25 0.27 0.25 0.25 0.20 0.13 0.24 0.27 0.34 0.28 0.10 0.07 0.07 0.08 0.07 0.05 0.02 0.01 0.01
0.40 0.78 0.99 0.94 0.91 0.82 0.77 0.86 0.91 1.04 0.79 0.66 0.53 0.49 0.36 0.45 0.54 0.31 0.35 0.29 0.38 0.37 0.26 0.23 0.21 0.14 0.16 0.08 0.18 0.23 0.27 0.27 0.26 0.29 0.10 0.10 0.12 0.15 0.16 0.10 0.09 0.09 0.04
0.14 0.17 0.44 0.71 1.09 1.09 0.81 0.54 0.58 0.56 0.47 0.41 0.51 0.63 0.70 0.62 0.52 0.54 0.72 0.38 0.25 0.34 0.35 0.29 0.21 0.25 0.32 0.21 0.24 0.21 0.18 0.19 0.29 0.25 0.13 0.09 0.12 0.11 0.09 0.11 0.15 0.08 0.06
0.03 0.13 0.10 0.11 0.32 0.55 0.58 0.58 0.47 0.46 0.38 0.32 0.57 0.82 0.58 0.48 0.50 0.47 0.60 0.70 0.40 0.43 0.53 0.42 0.37 0.31 0.47 0.46 0.27 0.26 0.13 0.11 0.19 0.16 0.06 0.05 0.07 0.11 0.07 0.05 0.08 0.18 0.10
0.13 0.23 0.24 0.19 0.18 0.15 0.16 0.28 0.41 0.46 0.54 0.44 0.32 0.31 0.35 0.40 0.47 0.46 0.51 0.36 0.36 0.38 0.40 0.43 0.44 0.22 0.48 0.47 0.24 0.21 0.11 0.16 0.16 0.13 0.10 0.05 0.06 0.08 0.11 0.08 0.15 0.25 0.20
0.17 0.15 0.14 0.17 0.26 0.24 0.25 0.42 0.56 0.54 0.42 0.33 0.35 0.54 0.47 0.42 0.50 0.54 0.47 0.36 0.29 0.26 0.31 0.36 0.31 0.43 0.45 0.49 0.35 0.27 0.20 0.17 0.19 0.09 0.10 0.11 0.10 0.08 0.19 0.23 0.23 0.33 0.28
0.09 0.18 0.17 0.13 0.21 0.27 0.38 0.47 0.33 0.27 0.40 0.49 0.61 0.50 0.48 0.61 0.55 0.47 0.50 0.38 0.35 0.20 0.18 0.27 0.37 0.37 0.48 0.49 0.49 0.47 0.36 0.20 0.11 0.12 0.10 0.10 0.11 0.11 0.18 0.27 0.46 0.47 0.48
0.11 0.08 0.09 0.07 0.13 0.25 0.31 0.33 0.32 0.30 0.30 0.27 0.30 0.33 0.41 0.52 0.45 0.55 0.68 0.49 0.42 0.30 0.26 0.32 0.34 0.40 0.37 0.34 0.32 0.30 0.28 0.22 0.18 0.20 0.16 0.16 0.15 0.21 0.24 0.41 0.42 0.37 0.44
0.14 0.11 0.09 0.04 0.05 0.10 0.25 0.33 0.19 0.27 0.30 0.36 0.44 0.56 0.63 0.60 0.44 0.46 0.68 0.76 0.71 0.50 0.47 0.34 0.34 0.30 0.29 0.24 0.26 0.26 0.20 0.22 0.21 0.19 0.18 0.21 0.33 0.47 0.50 0.54 0.51 0.65 0.68
0.06 0.19 0.24 0.23 0.20 0.23 0.27 0.38 0.49 0.62 0.56 0.65 0.75 0.83 0.76 0.67 0.76 1.04 1.17 1.24 1.32 1.48 1.41 0.94 0.80 0.61 0.57 0.40 0.33 0.30 0.27 0.24 0.25 0.47 0.68 0.81 0.81 0.87 0.75 0.82 0.94 1.09 1.21
0.25 0.41 0.52 0.58 0.66 0.69 0.75 0.85 1.04 0.99 0.94 1.09 1.17 1.11 1.45 2.02 2.64 2.56 3.00 3.25 3.05 2.82 2.39 1.81 1.40 0.89 0.69 0.69 0.73 0.59 0.46 0.40 0.42 0.81 0.99 0.98 1.00 0.91 0.84 0.93 0.95 0.86 0.84
0.35 0.26 0.23 0.37 0.64 0.72 0.84 0.84 0.85 1.02 1.03 1.06 1.31 1.43 1.41 1.20 1.14 1.31 1.65 1.72 1.65 1.41 0.85 0.55 0.48 0.47 0.52 0.71 0.78 0.70 0.64 0.56 0.73 1.04 1.18 1.06 0.98 0.91 1.00 0.92 0.94 0.94 0.87
0.77 0.97 0.95 0.74 0.68 0.57 0.63 0.71 0.94 1.01 0.95 0.80 0.62 0.63 0.51 0.53 0.76 0.86 1.05 0.81 0.45 0.43 0.28 0.36 0.27 0.36 0.37 0.35 0.40 0.44 0.43 0.56 0.80 1.00 1.01 0.90 1.00 1.02 0.88 0.78 0.97 1.08 1.03
1.28 0.90 1.01 1.40 1.53 1.32 1.23 1.04 0.62 0.39 0.40 0.34 0.36 0.44 0.54 0.57 0.74 0.77 0.72 0.46 0.40 0.37 0.47 0.49 0.52 0.72 0.70 0.65 0.69 0.64 0.63 1.00 1.26 1.55 1.82 1.82 1.95 2.25 2.34 2.54 3.13 3.82 3.75
1.74 2.34 1.99 1.76 1.84 1.84 1.85 1.96 1.75 1.40 1.27 1.01 0.92 0.82 0.87 0.92 0.82 0.87 0.85 0.96 0.85 0.90 1.10 1.08 1.04 1.08 1.12 1.12 1.33 1.47 1.45 1.64 1.74 2.05 2.28 2.38 2.77 3.27 3.59 3.81 3.50 3.02 2.57
1.40 1.34 1.45 1.44 1.80 2.03 2.03 2.15 2.15 2.09 2.07 2.02 2.09 2.14 2.31 2.19 1.73 1.67 1.73 1.80 1.59 1.60 1.98 2.28 2.67 3.20 3.36 3.49 3.55 3.61 3.44 3.41 3.42 3.45 3.97 4.11 4.03 3.88 3.70 3.02 2.47 2.32 2.17
0.55 0.89 1.08 1.30 0.84 0.78 0.79 0.74 0.88 0.93 0.98 1.15 1.14 1.33 1.61 1.59 1.38 1.51 1.49 1.44 1.46 1.65 1.92 1.98 2.05 2.16 2.28 2.50 2.49 2.12 1.77 2.00 2.13 2.27 2.31 2.35 2.31 2.38 2.60 2.43 2.04 1.78 1.64
0.28 0.40 0.48 0.80 1.32 1.29 1.40 1.25 1.05 0.74 0.71 0.73 0.88 0.66 0.43 0.46 0.41 0.43 0.43 0.43 0.44 0.42 0.55 0.53 0.51 0.44 0.32 0.31 0.35 0.32 0.26 0.28 0.33 0.46 0.54 0.64 0.78 0.82 0.87 0.77 0.70 0.64 0.64
0.12 0.49 0.87 0.70 0.64 0.67 0.64 1.15 1.93 2.20 1.91 1.64 1.32 1.20 1.13 0.82 0.71 0.78 0.82 0.64 0.57 0.55 0.45 0.44 0.33 0.31 0.25 0.28 0.31 0.31 0.30 0.39 0.41 0.32 0.29 0.31 0.30 0.43 0.32 0.36 0.40 0.40 0.42
0.12 0.16 0.43 0.94 1.08 0.93 0.95 0.89 0.73 0.72 0.89 1.13 1.36 1.22 1.15 1.08 0.94 0.82 0.70 0.64 0.65 0.75 0.58 0.50 0.42 0.38 0.34 0.28 0.23 0.21 0.28 0.32 0.27 0.34 0.30 0.27 0.25 0.26 0.28 0.26 0.23 0.25 0.22
0.18 0.19 0.21 0.26 0.46 0.62 0.72 0.85 1.21 1.43 0.99 0.69 0.70 0.81 0.99 1.04 0.94 0.85 0.83 0.85 0.80 0.78 0.80 0.74 0.69 0.62 0.55 0.51 0.49 0.47 0.40 0.30 0.29 0.31 0.26 0.21 0.22 0.25 0.25 0.23 0.23 0.24 0.24

GFSGL_prec_precacc_105.txt.gz
Total_Precipitation_Accumulation
0.01 0.01 0.10 0.06 0.07 0.05 0.09 0.09 0.13 0.24 0.34 0.29 0.58 0.40 0.31 0.17 0.15 0.21 0.12 0.10 0.15 0.07 0.05 0.06 0.04 0.02 0.01 0.01 0.01 0.01 0.00 0.01 0.00 0.00 0.00 0.00 0.00 0.00 0.00 0.00 0.00 0.00 0.00
0.27 0.10 0.16 0.14 0.09 0.04 0.12 0.08 0.09 0.16 0.27 0.26 0.24 0.44 0.32 0.19 0.18 0.19 0.10 0.11 0.26 0.15 0.07 0.09 0.10 0.03 0.06 0.01 0.01 0.01 0.01 0.01 0.01 0.00 0.00 0.00 0.00 0.00 0.00 0.00 0.00 0.00 0.00
0.60 0.61 0.67 0.41 0.22 0.12 0.07 0.10 0.13 0.16 0.11 0.10 0.15 0.34 0.33 0.11 0.15 0.18 0.23 0.24 0.22 0.19 0.16 0.15 0.15 0.08 0.13 0.05 0.08 0.05 0.01 0.02 0.06 0.03 0.00 0.00 0.00 0.00 0.00 0.00 0.00 0.00 0.00
1.04 1.17 0.81 0.54 0.29 0.20 0.26 0.28 0.17 0.17 0.10 0.07 0.06 0.06 0.14 0.14 0.09 0.12 0.14 0.31 0.17 0.19 0.29 0.21 0.18 0.14 0.18 0.19 0.10 0.14 0.06 0.10 0.07 0.07 0.03 0.01 0.00 0.00 0.00 0.00 0.00 0.00 0.00
1.55 1.49 1.34 0.90 0.66 0.62 0.66 0.71 0.61 0.45 0.29 0.17 0.09 0.04 0.05 0.05 0.04 0.05 0.06 0.10 0.21 0.22 0.27 0.27 0.24 0.35 0.21 0.23 0.23 0.26 0.16 0.12 0.09 0.11 0.08 0.02 0.01 0.02 0.03 0.01 0.00 0.00 0.00
1.20 1.26 1.01 0.69 0.69 0.86 1.04 1.35 0.85 0.61 0.56 0.47 0.27 0.32 0.25 0.15 0.19 0.13 0.11 0.21 0.30 0.36 0.29 0.28 0.26 0.27 0.26 0.26 0.20 0.13 0.24 0.28 0.35 0.29 0.10 0.07 0.08 0.09 0.07 0.06 0.02 0.02 0.01
0.41 0.78 1.00 0.97 0.94 0.88 0.84 0.96 0.99 1.09 0.84 0.73 0.62 0.58 0.42 0.47 0.55 0.31 0.35 0.30 0.43 0.43 0.31 0.30 0.26 0.16 0.18 0.08 0.18 0.24 0.30 0.31 0.32 0.30 0.12 0.13 0.16 0.24 0.20 0.13 0.12 0.13 0.06
0.17 0.20 0.45 0.72 1.12 1.11 0.85 0.65 0.70 0.62 0.53 0.50 0.55 0.65 0.70 0.62 0.52 0.54 0.74 0.42 0.35 0.40 0.38 0.32 0.23 0.26 0.32 0.21 0.24 0.21 0.19 0.23 0.35 0.27 0.16 0.12 0.15 0.14 0.09 0.11 0.15 0.09 0.06
0.09 0.16 0.12 0.13 0.33 0.62 0.70 0.63 0.50 0.50 0.46 0.46 0.58 0.82 0.58 0.48 0.50 0.47 0.66 0.71 0.41 0.46 0.54 0.42 0.37 0.31 0.47 0.46 0.27 0.26 0.13 0.11 0.19 0.16 0.06 0.05 0.07 0.11 0.07 0.05 0.09 0.23 0.15
0.15 0.24 0.24 0.19 0.20 0.17 0.19 0.29 0.41 0.47 0.57 0.47 0.33 0.31 0.35 0.40 0.47 0.46 0.54 0.37 0.36 0.38 0.41 0.43 0.44 0.22 0.48 0.47 0.24 0.21 0.11 0.16 0.16 0.13 0.10 0.05 0.06 0.08 0.11 0.08 0.16 0.27 0.21
0.22 0.16 0.14 0.17 0.26 0.24 0.25 0.42 0.56 0.54 0.42 0.33 0.35 0.54 0.47 0.42 0.50 0.54 0.47 0.36 0.29 0.26 0.31 0.36 0.31 0.43 0.45 0.49 0.35 0.27 0.20 0.17 0.19 0.09 0.10 0.11 0.10 0.08 0.19 0.23 0.23 0.33 0.28
0.15 0.21 0.18 0.13 0.21 0.27 0.38 0.47 0.33 0.27 0.40 0.49 0.61 0.50 0.48 0.61 0.55 0.47 0.50 0.38 0.35 0.20 0.18 0.27 0.37 0.37 0.48 0.49 0.49 0.47 0.36 0.20 0.11 0.12 0.10 0.10 0.11 0.11 0.18 0.27 0.46 0.47 0.48
0.14 0.10 0.10 0.07 0.13 0.25 0.31 0.33 0.32 0.30 0.30 0.27 0.30 0.33 0.41 0.52 0.45 0.55 0.68 0.49 0.42 0.30 0.26 0.32 0.34 0.40 0.37 0.34 0.32 0.30 0.28 0.22 0.18 0.20 0.16 0.16 0.15 0.21 0.24 0.41 0.42 0.37 0.44
0.15 0.12 0.09 0.04 0.05 0.10 0.25 0.33 0.19 0.27 0.30 0.36 0.44 0.56 0.63 0.60 0.44 0.46 0.68 0.76 0.71 0.50 0.47 0.34 0.34 0.30 0.29 0.24 0.26 0.26 0.20 0.22 0.21 0.19 0.18 0.21 0.33 0.47 0.50 0.54 0.51 0.65 0.68
0.07 0.19 0.24 0.23 0.20 0.23 0.27 0.38 0.49 0.62 0.56 0.65 0.75 0.83 0.76 0.67 0.76 1.04 1.17 1.24 1.32 1.48 1.41 0.94 0.80 0.61 0.57 0.40 0.33 0.30 0.27 0.24 0.25 0.47 0.68 0.81 0.81 0.87 0.75 0.82 0.94 1.09 1.21
0.26 0.41 0.52 0.58 0.66 0.69 0.75 0.85 1.04 0.99 0.94 1.09 1.17 1.11 1.45 2.02 2.64 2.56 3.00 3.25 3.05 2.82 2.39 1.81 1.40 0.89 0.69 0.69 0.73 0.59 0.46 0.40 0.42 0.81 0.99 0.98 1.00 0.91 0.84 0.93 0.95 0.86 0.84
0.35 0.26 0.23 0.37 0.64 0.72 0.84 0.84 0.85 1.02 1.03 1.06 1.31 1.43 1.41 1.20 1.14 1.31 1.65 1.72 1.65 1.41 0.85 0.55 0.48 0.47 0.52 0.71 0.78 0.70 0.64 0.56 0.73 1.04 1.18 1.06 0.98 0.91 1.00 0.92 0.94 0.94 0.87
0.77 0.97 0.95 0.74 0.68 0.57 0.63 0.71 0.94 1.01 0.95 0.80 0.62 0.63 0.51 0.53 0.76 0.86 1.05 0.81 0.45 0.43 0.28 0.36 0.27 0.36 0.37 0.35 0.40 0.44 0.43 0.56 0.80 1.00 1.01 0.90 1.00 1.02 0.88 0.78 0.97 1.08 1.03
1.28 0.90 1.01 1.40 1.53 1.32 1.23 1.04 0.62 0.39 0.40 0.34 0.36 0.44 0.54 0.57 0.74 0.77 0.72 0.46 0.40 0.37 0.47 0.49 0.52 0.72 0.70 0.65 0.69 0.64 0.63 1.00 1.26 1.55 1.82 1.82 1.95 2.25 2.34 2.54 3.13 3.82 3.75
1.74 2.34 1.99 1.76 1.84 1.84 1.85 1.96 1.75 1.40 1.27 1.01 0.92 0.82 0.87 0.92 0.82 0.87 0.85 0.96 0.85 0.90 1.10 1.08 1.04 1.08 1.12 1.12 1.33 1.47 1.45 1.64 1.74 2.05 2.28 2.38 2.77 3.27 3.59 3.81 3.50 3.02 2.57
1.40 1.34 1.45 1.44 1.80 2.03 2.03 2.15 2.15 2.09 2.07 2.02 2.09 2.14 2.31 2.19 1.73 1.67 1.73 1.80 1.59 1.60 1.98 2.28 2.67 3.20 3.36 3.49 3.55 3.61 3.44 3.41 3.42 3.45 3.97 4.11 4.03 3.88 3.70 3.02 2.47 2.32 2.17
0.55 0.89 1.08 1.30 0.84 0.78 0.79 0.74 0.88 0.93 0.98 1.15 1.14 1.33 1.61 1.59 1.38 1.51 1.49 1.44 1.46 1.65 1.92 1.98 2.05 2.16 2.28 2.50 2.49 2.12 1.77 2.00 2.13 2.27 2.31 2.35 2.31 2.38 2.60 2.43 2.04 1.78 1.64
0.28 0.40 0.48 0.80 1.32 1.29 1.40 1.25 1.05 0.74 0.71 0.73 0.88 0.66 0.43 0.46 0.41 0.43 0.43 0.43 0.44 0.42 0.55 0.53 0.51 0.44 0.32 0.31 0.35 0.32 0.26 0.28 0.33 0.46 0.54 0.64 0.78 0.82 0.87 0.77 0.70 0.64 0.64
0.12 0.49 0.87 0.70 0.64 0.67 0.64 1.15 1.93 2.20 1.91 1.64 1.32 1.20 1.13 0.82 0.71 0.78 0.82 0.64 0.57 0.55 0.45 0.44 0.33 0.31 0.25 0.28 0.31 0.31 0.30 0.39 0.41 0.32 0.29 0.31 0.30 0.43 0.33 0.36 0.40 0.40 0.42
0.12 0.16 0.43 0.94 1.08 0.93 0.95 0.89 0.73 0.72 0.89 1.13 1.36 1.22 1.15 1.08 0.94 0.82 0.70 0.64 0.65 0.75 0.58 0.50 0.42 0.38 0.34 0.28 0.23 0.21 0.28 0.32 0.27 0.34 0.30 0.27 0.25 0.26 0.28 0.26 0.23 0.25 0.22
0.18 0.19 0.21 0.26 0.46 0.62 0.72 0.85 1.21 1.43 0.99 0.69 0.70 0.81 0.99 1.04 0.94 0.85 0.83 0.85 0.80 0.78 0.80 0.74 0.69 0.62 0.55 0.51 0.49 0.47 0.40 0.30 0.29 0.31 0.26 0.21 0.22 0.25 0.25 0.23 0.23 0.24 0.24

GFSGL_prec_precacc_108.txt.gz
Total_Precipitation_Accumulation
0.01 0.01 0.10 0.06 0.07 0.05 0.09 0.10 0.16 0.28 0.37 0.42 0.64 0.42 0.32 0.19 0.17 0.23 0.17 0.16 0.18 0.07 0.05 0.07 0.04 0.02 0.01 0.01 0.01 0.01 0.00 0.01 0.00 0.00 0.00 0.00 0.00 0.00 0.00 0.00 0.00 0.00 0.00
0.27 0.10 0.16 0.14 0.09 0.04 0.12 0.08 0.09 0.18 0.29 0.33 0.32 0.51 0.32 0.20 0.20 0.23 0.14 0.14 0.28 0.15 0.07 0.09 0.11 0.03 0.07 0.02 0.01 0.01 0.01 0.01 0.02 0.00 0.00 0.00 0.00 0.00 0.00 0.00 0.00 0.00 0.00
0.67 0.70 0.72 0.41 0.22 0.12 0.07 0.10 0.13 0.16 0.11 0.11 0.20 0.43 0.39 0.20 0.22 0.19 0.29 0.27 0.23 0.19 0.16 0.15 0.16 0.09 0.16 0.08 0.10 0.05 0.01 0.02 0.06 0.04 0.01 0.00 0.00 0.00 0.00 0.00 0.00 0.00 0.00
1.12 1.21 0.91 0.60 0.30 0.20 0.26 0.28 0.17 0.18 0.11 0.09 0.11 0.16 0.20 0.18 0.12 0.13 0.15 0.34 0.20 0.20 0.29 0.21 0.18 0.14 0.22 0.24 0.15 0.18 0.09 0.11 0.07 0.08 0.03 0.01 0.00 0.02 0.12 0.00 0.00 0.00 0.00
1.58 1.53 1.40 0.94 0.68 0.66 0.69 0.71 0.61 0.47 0.31 0.19 0.10 0.08 0.10 0.11 0.05 0.06 0.09 0.15 0.33 0.26 0.30 0.28 0.24 0.38 0.29 0.28 0.24 0.28 0.17 0.14 0.10 0.12 0.08 0.02 0.01 0.02 0.03 0.01 0.00 0.00 0.00
1.20 1.27 1.07 0.78 0.79 1.04 1.17 1.50 0.95 0.68 0.59 0.50 0.30 0.37 0.32 0.22 0.28 0.14 0.13 0.27 0.40 0.41 0.37 0.33 0.31 0.31 0.29 0.27 0.20 0.13 0.24 0.29 0.36 0.30 0.10 0.07 0.09 0.09 0.07 0.07 0.03 0.02 0.01
0.41 0.78 1.03 1.03 1.06 0.97 0.99 1.19 1.22 1.25 0.94 0.79 0.67 0.64 0.53 0.56 0.59 0.33 0.36 0.30 0.48 0.47 0.38 0.35 0.41 0.23 0.23 0.10 0.19 0.24 0.31 0.36 0.34 0.30 0.13 0.19 0.18 0.27 0.21 0.14 0.14 0.14 0.06
0.18 0.21 0.45 0.73 1.15 1.12 0.87 0.78 0.92 0.83 0.68 0.65 0.61 0.74 0.73 0.63 0.53 0.55 0.75 0.44 0.41 0.46 0.45 0.38 0.32 0.31 0.35 0.21 0.24 0.21 0.20 0.25 0.37 0.28 0.19 0.14 0.15 0.14 0.10 0.11 0.15 0.09 0.07
0.21 0.22 0.14 0.16 0.36 0.62 0.70 0.64 0.54 0.66 0.60 0.57 0.66 0.84 0.58 0.48 0.50 0.47 0.72 0.75 0.44 0.55 0.66 0.49 0.41 0.34 0.47 0.46 0.27 0.26 0.13 0.11 0.19 0.16 0.06 0.05 0.07 0.11 0.07 0.05 0.09 0.24 0.16
0.22 0.30 0.26 0.20 0.20 0.17 0.19 0.30 0.42 0.49 0.62 0.51 0.36 0.32 0.35 0.40 0.47 0.46 0.57 0.47 0.40 0.42 0.41 0.43 0.44 0.22 0.48 0.47 0.24 0.21 0.11 0.16 0.16 0.13 0.10 0.05 0.06 0.08 0.11 0.08 0.16 0.28 0.21
0.25 0.17 0.14 0.17 0.26 0.25 0.26 0.43 0.57 0.55 0.42 0.33 0.36 0.54 0.47 0.42 0.50 0.54 0.47 0.38 0.33 0.27 0.31 0.36 0.31 0.43 0.45 0.49 0.35 0.27 0.20 0.17 0.19 0.09 0.10 0.11 0.10 0.08 0.19 0.23 0.23 0.34 0.28
0.19 0.24 0.19 0.13 0.21 0.27 0.39 0.47 0.33 0.27 0.40 0.50 0.61 0.50 0.48 0.61 0.55 0.47 0.50 0.38 0.35 0.20 0.18 0.27 0.37 0.37 0.48 0.49 0.49 0.47 0.36 0.20 0.11 0.12 0.10 0.10 0.11 0.11 0.18 0.27 0.46 0.47 0.48
0.16 0.12 0.11 0.08 0.13 0.25 0.31 0.33 0.32 0.30 0.30 0.27 0.30 0.33 0.41 0.52 0.45 0.55 0.68 0.49 0.42 0.30 0.26 0.32 0.34 0.40 0.37 0.34 0.32 0.30 0.28 0.22 0.18 0.20 0.16 0.16 0.15 0.21 0.24 0.41 0.42 0.37 0.44
0.17 0.14 0.12 0.06 0.05 0.10 0.25 0.33 0.19 0.27 0.30 0.36 0.44 0.56 0.63 0.60 0.44 0.46 0.68 0.76 0.71 0.50 0.47 0.34 0.34 0.30 0.29 0.24 0.26 0.26 0.20 0.22 0.21 0.19 0.18 0.21 0.33 0.47 0.50 0.54 0.51 0.65 0.68
0.08 0.20 0.25 0.23 0.20 0.24 0.27 0.38 0.49 0.62 0.56 0.65 0.75 0.83 0.76 0.67 0.76 1.04 1.17 1.24 1.32 1.48 1.41 0.94 0.80 0.61 0.57 0.40 0.33 0.30 0.27 0.24 0.25 0.47 0.68 0.81 0.81 0.87 0.75 0.82 0.94 1.09 1.21
0.26 0.41 0.52 0.59 0.66 0.69 0.75 0.85 1.04 0.99 0.94 1.09 1.17 1.11 1.45 2.02 2.64 2.56 3.00 3.25 3.05 2.82 2.39 1.81 1.40 0.89 0.69 0.69 0.73 0.59 0.46 0.40 0.42 0.81 0.99 0.98 1.00 0.91 0.84 0.93 0.95 0.86 0.84
0.35 0.26 0.23 0.37 0.64 0.72 0.84 0.84 0.85 1.02 1.03 1.06 1.31 1.43 1.41 1.20 1.14 1.31 1.65 1.72 1.65 1.41 0.85 0.55 0.48 0.47 0.52 0.71 0.78 0.70 0.64 0.56 0.73 1.04 1.18 1.06 0.98 0.91 1.00 0.92 0.94 0.94 0.87
0.77 0.97 0.95 0.74 0.68 0.57 0.63 0.71 0.94 1.01 0.95 0.80 0.62 0.63 0.51 0.53 0.76 0.86 1.05 0.81 0.45 0.43 0.28 0.36 0.27 0.36 0.37 0.35 0.40 0.44 0.43 0.56 0.80 1.00 1.01 0.90 1.00 1.02 0.88 0.78 0.97 1.08 1.03
1.28 0.90 1.01 1.40 1.53 1.32 1.23 1.04 0.62 0.39 0.40 0.34 0.36 0.44 0.54 0.57 0.74 0.77 0.72 0.46 0.40 0.37 0.47 0.49 0.52 0.72 0.70 0.65 0.69 0.64 0.63 1.00 1.26 1.55 1.82 1.82 1.95 2.25 2.34 2.54 3.13 3.82 3.75
1.74 2.34 1.99 1.76 1.84 1.84 1.85 1.96 1.75 1.40 1.27 1.01 0.92 0.82 0.87 0.92 0.82 0.87 0.85 0.96 0.85 0.90 1.10 1.08 1.04 1.08 1.12 1.12 1.33 1.47 1.45 1.64 1.74 2.05 2.28 2.38 2.77 3.27 3.59 3.81 3.50 3.02 2.57
1.40 1.34 1.45 1.44 1.80 2.03 2.03 2.15 2.15 2.09 2.07 2.02 2.09 2.14 2.31 2.19 1.73 1.67 1.73 1.80 1.59 1.60 1.98 2.28 2.67 3.20 3.36 3.49 3.55 3.61 3.44 3.41 3.42 3.45 3.97 4.11 4.03 3.88 3.70 3.02 2.47 2.32 2.17
0.55 0.89 1.08 1.30 0.84 0.78 0.79 0.74 0.88 0.93 0.98 1.15 1.14 1.33 1.61 1.59 1.38 1.51 1.49 1.44 1.46 1.65 1.92 1.98 2.05 2.16 2.28 2.50 2.49 2.12 1.77 2.00 2.13 2.27 2.31 2.35 2.31 2.38 2.60 2.43 2.04 1.78 1.64
0.28 0.40 0.48 0.80 1.32 1.29 1.40 1.25 1.05 0.74 0.71 0.73 0.88 0.66 0.43 0.46 0.41 0.43 0.43 0.43 0.44 0.42 0.55 0.53 0.51 0.44 0.32 0.31 0.35 0.32 0.26 0.28 0.33 0.46 0.54 0.64 0.78 0.82 0.87 0.77 0.70 0.64 0.64
0.12 0.49 0.87 0.70 0.64 0.67 0.64 1.15 1.93 2.20 1.91 1.64 1.32 1.20 1.13 0.82 0.71 0.78 0.82 0.64 0.57 0.55 0.45 0.44 0.33 0.31 0.25 0.28 0.31 0.31 0.30 0.39 0.41 0.32 0.29 0.31 0.30 0.43 0.33 0.36 0.40 0.40 0.42
0.12 0.16 0.43 0.94 1.08 0.93 0.95 0.89 0.73 0.72 0.89 1.13 1.36 1.22 1.15 1.08 0.94 0.82 0.70 0.64 0.65 0.75 0.58 0.50 0.42 0.38 0.34 0.28 0.23 0.21 0.28 0.32 0.27 0.34 0.30 0.27 0.25 0.26 0.28 0.26 0.23 0.25 0.22
0.18 0.19 0.21 0.26 0.46 0.62 0.72 0.85 1.21 1.43 0.99 0.69 0.70 0.81 0.99 1.04 0.94 0.85 0.83 0.85 0.80 0.78 0.80 0.74 0.69 0.62 0.55 0.51 0.49 0.47 0.40 0.30 0.29 0.31 0.26 0.21 0.22 0.25 0.25 0.23 0.23 0.24 0.24

GFSGL_prec_precacc_111.txt.gz
Total_Precipitation_Accumulation
0.02 0.01 0.10 0.06 0.07 0.07 0.10 0.10 0.17 0.29 0.45 0.46 0.70 0.51 0.34 0.20 0.17 0.25 0.19 0.16 0.19 0.07 0.05 0.07 0.04 0.02 0.01 0.01 0.01 0.01 0.00 0.01 0.01 0.00 0.00 0.00 0.00 0.00 0.00 0.00 0.00 0.00 0.00
0.27 0.11 0.18 0.14 0.09 0.05 0.12 0.08 0.10 0.20 0.36 0.38 0.33 0.53 0.34 0.24 0.22 0.32 0.18 0.16 0.28 0.16 0.07 0.09 0.11 0.03 0.07 0.02 0.01 0.02 0.01 0.03 0.02 0.02 0.00 0.00 0.00 0.00 0.02 0.03 0.00 0.00 0.00
0.68 0.70 0.72 0.41 0.22 0.12 0.07 0.10 0.13 0.17 0.14 0.17 0.24 0.46 0.39 0.22 0.23 0.20 0.31 0.29 0.25 0.21 0.16 0.16 0.16 0.09 0.16 0.08 0.10 0.06 0.01 0.04 0.07 0.07 0.02 0.01 0.01 0.01 0.03 0.00 0.00 0.00 0.00
1.18 1.22 0.91 0.64 0.32 0.20 0.26 0.28 0.17 0.18 0.11 0.12 0.13 0.17 0.27 0.26 0.16 0.14 0.16 0.35 0.21 0.21 0.31 0.23 0.19 0.14 0.23 0.25 0.17 0.18 0.09 0.12 0.08 0.08 0.05 0.04 0.05 0.05 0.16 0.03 0.01 0.00 0.00
1.72 1.63 1.48 1.02 0.81 0.72 0.70 0.73 0.62 0.49 0.33 0.20 0.12 0.12 0.27 0.33 0.09 0.09 0.10 0.16 0.34 0.26 0.32 0.36 0.28 0.40 0.30 0.28 0.25 0.28 0.17 0.14 0.10 0.12 0.08 0.03 0.04 0.05 0.05 0.03 0.02 0.00 0.00
1.42 1.49 1.19 0.87 0.86 1.16 1.32 1.66 1.08 0.79 0.68 0.54 0.32 0.40 0.40 0.25 0.36 0.20 0.14 0.29 0.41 0.42 0.40 0.38 0.34 0.37 0.34 0.29 0.21 0.13 0.24 0.29 0.36 0.30 0.10 0.08 0.10 0.12 0.11 0.09 0.03 0.02 0.01
0.61 0.90 1.09 1.04 1.09 1.02 1.11 1.38 1.42 1.47 1.15 1.04 0.80 0.73 0.62 0.59 0.61 0.33 0.36 0.30 0.50 0.48 0.43 0.47 0.47 0.28 0.31 0.16 0.21 0.24 0.31 0.37 0.34 0.30 0.14 0.19 0.18 0.27 0.21 0.14 0.14 0.14 0.06
0.24 0.21 0.47 0.78 1.17 1.13 0.90 0.87 1.04 0.94 0.88 0.81 0.78 0.85 0.77 0.64 0.53 0.55 0.75 0.45 0.44 0.48 0.51 0.46 0.39 0.37 0.35 0.21 0.24 0.21 0.21 0.25 0.37 0.28 0.19 0.14 0.15 0.14 0.10 0.11 0.15 0.09 0.07
0.29 0.24 0.15 0.17 0.37 0.63 0.71 0.64 0.56 0.70 0.64 0.60 0.69 0.85 0.58 0.48 0.50 0.47 0.76 0.81 0.54 0.61 0.74 0.53 0.42 0.34 0.47 0.46 0.27 0.26 0.13 0.11 0.19 0.16 0.06 0.05 0.07 0.11 0.07 0.05 0.09 0.24 0.16
0.26 0.33 0.27 0.20 0.21 0.17 0.19 0.30 0.42 0.49 0.62 0.52 0.37 0.32 0.35 0.40 0.47 0.46 0.57 0.51 0.43 0.43 0.41 0.43 0.44 0.22 0.48 0.47 0.24 0.21 0.11 0.16 0.16 0.13 0.10 0.05 0.06 0.08 0.11 0.08 0.16 0.28 0.21
0.29 0.18 0.15 0.18 0.26 0.25 0.26 0.43 0.57 0.55 0.42 0.33 0.36 0.54 0.47 0.42 0.50 0.54 0.47 0.38 0.34 0.27 0.31 0.36 0.31 0.43 0.45 0.49 0.35 0.27 0.20 0.17 0.19 0.09 0.10 0.11 0.10 0.08 0.19 0.23 0.23 0.34 0.28
0.28 0.31 0.21 0.14 0.22 0.28 0.39 0.47 0.33 0.27 0.41 0.50 0.62 0.50 0.48 0.61 0.55 0.47 0.50 0.38 0.36 0.20 0.18 0.27 0.37 0.37 0.48 0.49 0.49 0.47 0.36 0.20 0.11 0.12 0.10 0.10 0.11 0.11 0.18 0.27 0.46 0.47 0.48
0.21 0.18 0.19 0.13 0.15 0.25 0.32 0.33 0.32 0.30 0.30 0.27 0.30 0.33 0.41 0.52 0.45 0.55 0.68 0.49 0.42 0.30 0.26 0.32 0.34 0.40 0.37 0.34 0.32 0.30 0.28 0.22 0.18 0.20 0.16 0.16 0.15 0.21 0.24 0.41 0.42 0.37 0.44
0.19 0.20 0.20 0.13 0.10 0.11 0.25 0.33 0.19 0.27 0.30 0.36 0.44 0.56 0.63 0.60 0.44 0.46 0.68 0.76 0.71 0.50 0.47 0.34 0.34 0.30 0.29 0.24 0.26 0.26 0.20 0.22 0.21 0.19 0.18 0.21 0.33 0.47 0.50 0.54 0.51 0.65 0.68
0.09 0.21 0.28 0.28 0.25 0.26 0.28 0.39 0.49 0.62 0.56 0.65 0.75 0.83 0.76 0.67 0.76 1.04 1.17 1.24 1.32 1.48 1.41 0.94 0.80 0.61 0.57 0.40 0.33 0.30 0.27 0.24 0.25 0.47 0.68 0.81 0.81 0.87 0.75 0.82 0.94 1.09 1.21
0.27 0.42 0.54 0.60 0.68 0.70 0.76 0.86 1.05 0.99 0.94 1.09 1.17 1.11 1.45 2.02 2.64 2.56 3.00 3.25 3.05 2.82 2.39 1.81 1.40 0.89 0.69 0.69 0.73 0.59 0.46 0.40 0.42 0.81 0.99 0.98 1.00 0.91 0.84 0.93 0.95 0.86 0.84
0.35 0.27 0.24 0.38 0.65 0.73 0.84 0.85 0.85 1.02 1.03 1.06 1.31 1.43 1.41 1.20 1.14 1.31 1.65 1.72 1.65 1.41 0.85 0.55 0.48 0.47 0.52 0.71 0.78 0.70 0.64 0.56 0.73 1.04 1.18 1.06 0.98 0.91 1.00 0.92 0.94 0.94 0.87
0.77 0.97 0.95 0.74 0.68 0.57 0.63 0.71 0.94 1.01 0.95 0.80 0.62 0.63 0.51 0.53 0.76 0.86 1.05 0.81 0.45 0.43 0.28 0.36 0.27 0.36 0.37 0.35 0.40 0.44 0.43 0.56 0.80 1.00 1.01 0.90 1.00 1.02 0.88 0.78 0.97 1.08 1.03
1.28 0.90 1.01 1.40 1.53 1.32 1.23 1.04 0.62 0.39 0.40 0.34 0.36 0.44 0.54 0.57 0.74 0.77 0.72 0.46 0.40 0.37 0.47 0.49 0.52 0.72 0.70 0.65 0.69 0.64 0.63 1.00 1.26 1.55 1.82 1.82 1.95 2.25 2.34 2.54 3.13 3.82 3.75
1.74 2.34 1.99 1.76 1.84 1.84 1.85 1.96 1.75 1.40 1.27 1.01 0.92 0.82 0.87 0.92 0.82 0.87 0.85 0.96 0.85 0.90 1.10 1.08 1.04 1.08 1.12 1.12 1.33 1.47 1.45 1.64 1.74 2.05 2.28 2.38 2.77 3.27 3.59 3.81 3.50 3.02 2.57
1.40 1.34 1.45 1.44 1.80 2.03 2.03 2.15 2.15 2.09 2.07 2.02 2.09 2.14 2.31 2.19 1.73 1.67 1.73 1.80 1.59 1.60 1.98 2.28 2.67 3.20 3.36 3.49 3.55 3.61 3.44 3.41 3.42 3.45 3.97 4.11 4.03 3.88 3.70 3.02 2.47 2.32 2.17
0.55 0.89 1.08 1.30 0.84 0.78 0.79 0.74 0.88 0.93 0.98 1.15 1.14 1.33 1.61 1.59 1.38 1.51 1.49 1.44 1.46 1.65 1.92 1.98 2.05 2.16 2.28 2.50 2.49 2.12 1.77 2.00 2.13 2.27 2.31 2.35 2.31 2.38 2.60 2.43 2.04 1.78 1.64
0.28 0.40 0.48 0.80 1.32 1.29 1.40 1.25 1.05 0.74 0.71 0.73 0.88 0.66 0.43 0.46 0.41 0.43 0.43 0.43 0.44 0.42 0.55 0.53 0.51 0.44 0.32 0.31 0.35 0.32 0.26 0.28 0.33 0.46 0.54 0.64 0.78 0.82 0.87 0.77 0.70 0.64 0.64
0.12 0.49 0.87 0.70 0.64 0.67 0.64 1.15 1.93 2.20 1.91 1.64 1.32 1.20 1.13 0.82 0.71 0.78 0.82 0.64 0.57 0.55 0.45 0.44 0.33 0.31 0.25 0.28 0.31 0.31 0.30 0.39 0.41 0.32 0.29 0.31 0.30 0.43 0.33 0.36 0.40 0.40 0.42
0.12 0.16 0.43 0.94 1.08 0.93 0.95 0.89 0.73 0.72 0.89 1.13 1.36 1.22 1.15 1.08 0.94 0.82 0.70 0.64 0.65 0.75 0.58 0.50 0.42 0.38 0.34 0.28 0.23 0.21 0.28 0.32 0.27 0.34 0.30 0.27 0.25 0.26 0.28 0.26 0.23 0.25 0.22
0.18 0.19 0.21 0.26 0.46 0.62 0.72 0.85 1.21 1.43 0.99 0.69 0.70 0.81 0.99 1.04 0.94 0.85 0.83 0.85 0.80 0.78 0.80 0.74 0.69 0.62 0.55 0.51 0.49 0.47 0.40 0.30 0.29 0.31 0.26 0.21 0.22 0.25 0.25 0.23 0.23 0.24 0.24

GFSGL_prec_precacc_114.txt.gz
Total_Precipitation_Accumulation
0.02 0.01 0.10 0.06 0.08 0.07 0.10 0.10 0.17 0.29 0.45 0.46 0.70 0.51 0.35 0.20 0.20 0.31 0.21 0.16 0.20 0.08 0.06 0.07 0.04 0.02 0.01 0.01 0.01 0.03 0.02 0.02 0.01 0.00 0.01 0.00 0.00 0.01 0.01 0.02 0.00 0.00 0.00
0.27 0.11 0.18 0.14 0.09 0.05 0.12 0.08 0.10 0.20 0.36 0.38 0.34 0.55 0.36 0.24 0.27 0.41 0.21 0.16 0.29 0.18 0.07 0.10 0.11 0.03 0.07 0.02 0.01 0.02 0.01 0.04 0.02 0.02 0.02 0.00 0.03 0.02 0.05 0.04 0.00 0.00 0.00
0.71 0.73 0.72 0.41 0.22 0.12 0.07 0.10 0.13 0.17 0.15 0.18 0.28 0.51 0.43 0.32 0.41 0.33 0.40 0.36 0.26 0.27 0.21 0.16 0.16 0.12 0.20 0.10 0.10 0.06 0.02 0.08 0.07 0.08 0.05 0.02 0.02 0.02 0.04 0.00 0.00 0.00 0.00
1.24 1.28 0.96 0.66 0.33 0.22 0.27 0.28 0.18 0.18 0.11 0.13 0.16 0.31 0.41 0.37 0.23 0.33 0.43 0.43 0.22 0.29 0.43 0.28 0.22 0.15 0.25 0.29 0.18 0.20 0.10 0.12 0.08 0.08 0.06 0.06 0.05 0.05 0.16 0.03 0.01 0.00 0.00
1.80 1.71 1.68 1.17 0.86 0.88 0.91 0.86 0.71 0.58 0.38 0.22 0.14 0.25 0.40 0.44 0.19 0.26 0.27 0.21 0.37 0.31 0.37 0.39 0.31 0.51 0.34 0.33 0.30 0.29 0.18 0.14 0.10 0.12 0.08 0.04 0.04 0.05 0.05 0.03 0.02 0.00 0.00
1.47 1.65 1.37 1.07 0.98 1.34 1.42 1.78 1.25 1.02 0.84 0.63 0.45 0.41 0.41 0.25 0.40 0.35 0.22 0.36 0.45 0.47 0.53 0.42 0.35 0.42 0.47 0.38 0.23 0.13 0.24 0.29 0.37 0.31 0.11 0.11 0.11 0.12 0.11 0.09 0.03 0.02 0.01
0.68 1.02 1.31 1.18 1.17 1.07 1.17 1.45 1.54 1.69 1.34 1.16 0.91 0.85 0.70 0.59 0.61 0.33 0.37 0.32 0.52 0.50 0.48 0.49 0.47 0.28 0.34 0.22 0.26 0.25 0.32 0.37 0.35 0.31 0.14 0.19 0.18 0.27 0.21 0.14 0.14 0.14 0.06
0.29 0.26 0.54 0.88 1.28 1.23 0.94 0.90 1.09 1.06 0.98 0.90 0.85 0.97 0.82 0.66 0.54 0.55 0.75 0.45 0.44 0.48 0.51 0.46 0.39 0.37 0.35 0.22 0.24 0.21 0.21 0.25 0.38 0.28 0.19 0.14 0.15 0.14 0.10 0.11 0.15 0.09 0.07
0.42 0.37 0.32 0.34 0.52 0.76 0.77 0.64 0.58 0.76 0.71 0.67 0.79 0.94 0.62 0.49 0.50 0.47 0.77 0.84 0.55 0.61 0.74 0.53 0.42 0.34 0.47 0.46 0.27 0.26 0.13 0.11 0.19 0.16 0.06 0.05 0.07 0.11 0.07 0.05 0.09 0.24 0.16
0.45 0.50 0.38 0.35 0.36 0.25 0.21 0.30 0.42 0.49 0.63 0.53 0.39 0.32 0.35 0.40 0.47 0.46 0.61 0.57 0.46 0.44 0.41 0.43 0.44 0.22 0.48 0.47 0.24 0.21 0.11 0.16 0.16 0.13 0.10 0.05 0.06 0.08 0.11 0.08 0.16 0.28 0.21
0.78 0.47 0.29 0.32 0.40 0.30 0.26 0.43 0.57 0.55 0.42 0.33 0.36 0.54 0.47 0.42 0.50 0.54 0.48 0.41 0.36 0.28 0.31 0.36 0.31 0.43 0.45 0.49 0.35 0.27 0.20 0.17 0.19 0.09 0.10 0.11 0.10 0.08 0.19 0.23 0.23 0.34 0.28
0.97 0.72 0.38 0.26 0.31 0.31 0.39 0.47 0.33 0.27 0.41 0.50 0.62 0.50 0.48 0.61 0.55 0.47 0.50 0.39 0.37 0.21 0.18 0.27 0.37 0.37 0.48 0.49 0.49 0.47 0.36 0.20 0.11 0.12 0.10 0.10 0.11 0.11 0.18 0.27 0.46 0.47 0.48
0.39 0.36 0.38 0.31 0.28 0.33 0.34 0.35 0.33 0.30 0.30 0.27 0.30 0.33 0.41 0.52 0.45 0.55 0.68 0.49 0.42 0.30 0.26 0.32 0.34 0.40 0.37 0.34 0.32 0.30 0.28 0.22 0.18 0.20 0.16 0.16 0.15 0.21 0.24 0.41 0.42 0.37 0.44
0.23 0.24 0.26 0.20 0.18 0.18 0.32 0.36 0.20 0.27 0.30 0.36 0.44 0.56 0.63 0.60 0.44 0.46 0.68 0.76 0.71 0.50 0.47 0.34 0.34 0.30 0.29 0.24 0.26 0.26 0.20 0.22 0.21 0.19 0.18 0.21 0.33 0.47 0.50 0.54 0.51 0.65 0.68
0.10 0.23 0.29 0.31 0.31 0.32 0.33 0.42 0.52 0.63 0.57 0.65 0.75 0.83 0.76 0.67 0.76 1.04 1.17 1.24 1.32 1.48 1.41 0.94 0.80 0.61 0.57 0.40 0.33 0.30 0.27 0.24 0.25 0.47 0.68 0.81 0.81 0.87 0.75 0.82 0.94 1.09 1.21
0.27 0.43 0.54 0.60 0.68 0.72 0.79 0.88 1.06 1.01 0.96 1.10 1.17 1.11 1.45 2.02 2.64 2.56 3.00 3.25 3.05 2.82 2.39 1.81 1.40 0.89 0.69 0.69 0.73 0.59 0.46 0.40 0.42 0.81 0.99 0.98 1.00 0.91 0.84 0.93 0.95 0.86 0.84
0.35 0.27 0.24 0.38 0.65 0.73 0.85 0.85 0.86 1.03 1.04 1.07 1.32 1.43 1.41 1.20 1.14 1.31 1.65 1.72 1.65 1.41 0.85 0.55 0.48 0.47 0.52 0.71 0.78 0.70 0.64 0.56 0.73 1.04 1.18 1.06 0.98 0.91 1.00 0.92 0.94 0.94 0.87
0.77 0.97 0.95 0.74 0.68 0.57 0.63 0.71 0.94 1.01 0.95 0.80 0.62 0.63 0.51 0.53 0.76 0.86 1.05 0.81 0.45 0.43 0.28 0.36 0.27 0.36 0.37 0.35 0.40 0.44 0.43 0.56 0.80 1.00 1.01 0.90 1.00 1.02 0.88 0.78 0.97 1.08 1.03
1.28 0.90 1.01 1.40 1.53 1.32 1.23 1.04 0.62 0.39 0.40 0.34 0.36 0.44 0.54 0.57 0.74 0.77 0.72 0.46 0.40 0.37 0.47 0.49 0.52 0.72 0.70 0.65 0.69 0.64 0.63 1.00 1.26 1.55 1.82 1.82 1.95 2.25 2.34 2.54 3.13 3.82 3.75
1.74 2.34 1.99 1.76 1.84 1.84 1.85 1.96 1.75 1.40 1.27 1.01 0.92 0.82 0.87 0.92 0.82 0.87 0.85 0.96 0.85 0.90 1.10 1.08 1.04 1.08 1.12 1.12 1.33 1.47 1.45 1.64 1.74 2.05 2.28 2.38 2.77 3.27 3.59 3.81 3.50 3.02 2.57
1.40 1.34 1.45 1.44 1.80 2.03 2.03 2.15 2.15 2.09 2.07 2.02 2.09 2.14 2.31 2.19 1.73 1.67 1.73 1.80 1.59 1.60 1.98 2.28 2.67 3.20 3.36 3.49 3.55 3.61 3.44 3.41 3.42 3.45 3.97 4.11 4.03 3.88 3.70 3.02 2.47 2.32 2.17
0.55 0.89 1.08 1.30 0.84 0.78 0.79 0.74 0.88 0.93 0.98 1.15 1.14 1.33 1.61 1.59 1.38 1.51 1.49 1.44 1.46 1.65 1.92 1.98 2.05 2.16 2.28 2.50 2.49 2.12 1.77 2.00 2.13 2.27 2.31 2.35 2.31 2.38 2.60 2.43 2.04 1.78 1.64
0.28 0.40 0.48 0.80 1.32 1.29 1.40 1.25 1.05 0.74 0.71 0.73 0.88 0.66 0.43 0.46 0.41 0.43 0.43 0.43 0.44 0.42 0.55 0.53 0.51 0.44 0.32 0.31 0.35 0.32 0.26 0.28 0.33 0.46 0.54 0.64 0.78 0.82 0.87 0.77 0.70 0.64 0.64
0.12 0.49 0.87 0.70 0.64 0.67 0.64 1.15 1.93 2.20 1.91 1.64 1.32 1.20 1.13 0.82 0.71 0.78 0.82 0.64 0.57 0.55 0.45 0.44 0.33 0.31 0.25 0.28 0.31 0.31 0.30 0.39 0.41 0.32 0.29 0.31 0.30 0.43 0.33 0.36 0.40 0.40 0.42
0.12 0.16 0.43 0.94 1.08 0.93 0.95 0.89 0.73 0.72 0.89 1.13 1.36 1.22 1.15 1.08 0.94 0.82 0.70 0.64 0.65 0.75 0.58 0.50 0.42 0.38 0.34 0.28 0.23 0.21 0.28 0.32 0.27 0.34 0.30 0.27 0.25 0.26 0.28 0.26 0.23 0.25 0.22
0.18 0.19 0.21 0.27 0.46 0.62 0.72 0.85 1.21 1.43 0.99 0.69 0.70 0.81 0.99 1.04 0.94 0.85 0.83 0.85 0.80 0.78 0.80 0.74 0.69 0.62 0.55 0.51 0.49 0.47 0.40 0.30 0.29 0.31 0.26 0.21 0.22 0.25 0.25 0.23 0.23 0.24 0.24

GFSGL_prec_precacc_117.txt.gz
Total_Precipitation_Accumulation
0.02 0.01 0.10 0.06 0.08 0.07 0.10 0.10 0.17 0.29 0.45 0.46 0.70 0.51 0.35 0.20 0.20 0.31 0.21 0.16 0.20 0.10 0.06 0.07 0.04 0.02 0.01 0.02 0.01 0.03 0.02 0.02 0.01 0.00 0.01 0.00 0.01 0.01 0.01 0.02 0.00 0.00 0.00
0.27 0.11 0.18 0.14 0.09 0.05 0.12 0.08 0.10 0.20 0.36 0.38 0.34 0.55 0.38 0.25 0.35 0.46 0.23 0.20 0.30 0.20 0.08 0.10 0.11 0.03 0.07 0.02 0.01 0.02 0.01 0.04 0.02 0.03 0.03 0.02 0.07 0.03 0.05 0.04 0.00 0.00 0.00
0.71 0.73 0.72 0.41 0.22 0.12 0.07 0.10 0.13 0.17 0.15 0.18 0.28 0.55 0.49 0.34 0.42 0.34 0.42 0.42 0.29 0.31 0.22 0.17 0.16 0.12 0.20 0.10 0.10 0.06 0.02 0.08 0.07 0.10 0.05 0.02 0.08 0.04 0.04 0.00 0.00 0.00 0.00
1.24 1.28 0.96 0.66 0.33 0.22 0.27 0.28 0.18 0.18 0.11 0.13 0.16 0.32 0.43 0.38 0.23 0.33 0.53 0.53 0.30 0.39 0.45 0.32 0.24 0.17 0.30 0.32 0.19 0.20 0.11 0.12 0.08 0.08 0.06 0.06 0.05 0.05 0.16 0.03 0.01 0.00 0.00
1.81 1.71 1.68 1.19 0.90 0.90 0.92 0.86 0.71 0.60 0.40 0.23 0.14 0.27 0.43 0.44 0.19 0.27 0.44 0.37 0.47 0.34 0.37 0.40 0.36 0.56 0.40 0.39 0.34 0.30 0.18 0.14 0.10 0.12 0.08 0.04 0.04 0.05 0.05 0.03 0.02 0.00 0.00
1.51 1.67 1.40 1.11 1.06 1.41 1.46 1.80 1.28 1.18 1.00 0.73 0.47 0.42 0.42 0.25 0.41 0.49 0.31 0.53 0.58 0.55 0.53 0.42 0.37 0.46 0.57 0.46 0.25 0.13 0.24 0.29 0.37 0.31 0.11 0.11 0.11 0.12 0.11 0.09 0.03 0.02 0.01
0.81 1.08 1.35 1.27 1.28 1.17 1.25 1.52 1.64 1.78 1.43 1.26 0.99 0.94 0.75 0.60 0.61 0.35 0.38 0.36 0.65 0.71 0.57 0.49 0.47 0.28 0.35 0.23 0.27 0.26 0.32 0.37 0.35 0.31 0.14 0.19 0.18 0.27 0.21 0.14 0.14 0.14 0.06
0.36 0.33 0.63 0.98 1.39 1.32 1.01 0.99 1.25 1.20 1.11 1.07 0.99 1.04 0.84 0.66 0.54 0.55 0.75 0.45 0.44 0.51 0.60 0.49 0.40 0.37 0.35 0.22 0.25 0.21 0.21 0.25 0.38 0.28 0.19 0.14 0.15 0.14 0.10 0.11 0.15 0.09 0.07
0.44 0.38 0.39 0.44 0.59 0.86 0.87 0.77 0.67 0.88 0.83 0.78 0.94 1.14 0.73 0.53 0.52 0.48 0.78 0.84 0.56 0.64 0.79 0.61 0.47 0.37 0.48 0.47 0.28 0.26 0.13 0.11 0.19 0.16 0.06 0.05 0.07 0.11 0.07 0.05 0.09 0.24 0.16
0.51 0.58 0.48 0.47 0.47 0.45 0.40 0.47 0.50 0.57 0.66 0.56 0.42 0.37 0.43 0.45 0.49 0.47 0.61 0.57 0.47 0.47 0.45 0.46 0.45 0.23 0.49 0.49 0.24 0.21 0.11 0.16 0.16 0.13 0.10 0.05 0.06 0.08 0.11 0.08 0.16 0.28 0.21
1.49 1.22 0.72 0.61 0.65 0.60 0.56 0.68 0.68 0.58 0.42 0.33 0.36 0.55 0.48 0.43 0.50 0.54 0.48 0.41 0.36 0.28 0.32 0.36 0.31 0.43 0.45 0.50 0.35 0.27 0.20 0.17 0.19 0.09 0.10 0.11 0.10 0.08 0.19 0.23 0.23 0.34 0.28
1.43 1.69 2.10 1.41 1.05 0.73 0.62 0.58 0.37 0.28 0.41 0.50 0.62 0.50 0.48 0.61 0.55 0.47 0.50 0.39 0.37 0.22 0.19 0.27 0.37 0.37 0.48 0.49 0.49 0.47 0.36 0.20 0.11 0.12 0.10 0.10 0.11 0.11 0.18 0.27 0.46 0.47 0.48
0.48 0.51 0.69 0.69 0.63 0.69 0.56 0.43 0.38 0.33 0.31 0.27 0.30 0.33 0.41 0.52 0.45 0.55 0.68 0.49 0.42 0.30 0.26 0.32 0.34 0.40 0.37 0.34 0.32 0.30 0.28 0.22 0.18 0.20 0.16 0.16 0.15 0.21 0.24 0.41 0.42 0.37 0.44
0.31 0.37 0.43 0.43 0.40 0.37 0.47 0.47 0.26 0.30 0.31 0.37 0.45 0.56 0.63 0.60 0.44 0.46 0.68 0.76 0.71 0.50 0.47 0.34 0.34 0.30 0.29 0.24 0.26 0.26 0.20 0.22 0.21 0.19 0.18 0.21 0.33 0.47 0.50 0.54 0.51 0.65 0.68
0.11 0.25 0.33 0.34 0.36 0.38 0.43 0.49 0.56 0.66 0.60 0.67 0.77 0.84 0.76 0.67 0.76 1.04 1.17 1.24 1.32 1.48 1.41 0.94 0.80 0.61 0.57 0.40 0.33 0.30 0.27 0.24 0.25 0.47 0.68 0.81 0.81 0.87 0.75 0.82 0.94 1.09 1.21
0.27 0.43 0.56 0.61 0.69 0.73 0.84 0.95 1.11 1.06 0.99 1.11 1.19 1.13 1.45 2.02 2.64 2.56 3.00 3.25 3.05 2.82 2.39 1.81 1.40 0.89 0.69 0.69 0.73 0.59 0.46 0.40 0.42 0.81 0.99 0.98 1.00 0.91 0.84 0.93 0.95 0.86 0.84
0.35 0.27 0.24 0.38 0.65 0.73 0.85 0.85 0.86 1.03 1.04 1.08 1.33 1.44 1.42 1.21 1.14 1.31 1.65 1.72 1.65 1.41 0.85 0.55 0.48 0.47 0.52 0.71 0.78 0.70 0.64 0.56 0.73 1.04 1.18 1.06 0.98 0.91 1.00 0.92 0.94 0.94 0.87
0.77 0.97 0.95 0.74 0.68 0.57 0.63 0.71 0.94 1.01 0.95 0.80 0.62 0.63 0.51 0.53 0.76 0.86 1.05 0.81 0.45 0.43 0.28 0.36 0.27 0.36 0.37 0.35 0.40 0.44 0.43 0.56 0.80 1.00 1.01 0.90 1.00 1.02 0.88 0.78 0.97 1.08 1.03
1.28 0.90 1.01 1.40 1.53 1.32 1.23 1.04 0.62 0.39 0.40 0.34 0.36 0.44 0.54 0.57 0.74 0.77 0.72 0.46 0.40 0.37 0.47 0.49 0.52 0.72 0.70 0.65 0.69 0.64 0.63 1.00 1.26 1.55 1.82 1.82 1.95 2.25 2.34 2.54 3.13 3.82 3.75
1.74 2.34 1.99 1.76 1.84 1.84 1.85 1.96 1.75 1.40 1.27 1.01 0.92 0.82 0.87 0.92 0.82 0.87 0.85 0.96 0.85 0.90 1.10 1.08 1.04 1.08 1.12 1.12 1.33 1.47 1.45 1.64 1.74 2.05 2.28 2.38 2.77 3.27 3.59 3.81 3.50 3.02 2.57
1.40 1.34 1.45 1.44 1.80 2.03 2.03 2.15 2.15 2.09 2.07 2.02 2.09 2.14 2.31 2.19 1.73 1.67 1.73 1.80 1.59 1.60 1.98 2.28 2.67 3.20 3.36 3.49 3.55 3.61 3.44 3.41 3.42 3.45 3.97 4.11 4.03 3.88 3.70 3.02 2.47 2.32 2.17
0.55 0.89 1.08 1.30 0.84 0.78 0.79 0.74 0.88 0.93 0.98 1.15 1.14 1.33 1.61 1.59 1.38 1.51 1.49 1.44 1.46 1.65 1.92 1.98 2.05 2.16 2.28 2.50 2.49 2.12 1.77 2.00 2.13 2.27 2.31 2.35 2.31 2.38 2.60 2.43 2.04 1.78 1.64
0.28 0.40 0.48 0.80 1.32 1.29 1.40 1.25 1.05 0.74 0.71 0.73 0.88 0.66 0.43 0.46 0.41 0.43 0.43 0.43 0.44 0.42 0.55 0.53 0.51 0.44 0.32 0.31 0.35 0.32 0.26 0.28 0.33 0.46 0.54 0.64 0.78 0.82 0.87 0.77 0.70 0.64 0.64
0.12 0.49 0.87 0.70 0.64 0.67 0.64 1.15 1.93 2.20 1.91 1.64 1.32 1.20 1.13 0.82 0.71 0.78 0.82 0.64 0.57 0.55 0.45 0.44 0.33 0.31 0.25 0.28 0.31 0.31 0.30 0.39 0.41 0.32 0.29 0.31 0.30 0.43 0.33 0.36 0.40 0.40 0.42
0.12 0.16 0.43 0.94 1.08 0.93 0.95 0.89 0.73 0.72 0.89 1.13 1.36 1.22 1.15 1.08 0.94 0.82 0.70 0.64 0.65 0.75 0.58 0.50 0.42 0.38 0.34 0.28 0.23 0.21 0.28 0.32 0.27 0.34 0.30 0.27 0.25 0.26 0.28 0.26 0.23 0.25 0.22
0.19 0.21 0.21 0.27 0.46 0.62 0.72 0.85 1.21 1.43 0.99 0.69 0.70 0.81 0.99 1.04 0.94 0.85 0.83 0.85 0.80 0.78 0.80 0.74 0.69 0.62 0.55 0.51 0.49 0.47 0.40 0.30 0.29 0.31 0.26 0.21 0.22 0.25 0.25 0.23 0.23 0.24 0.24

GFSGL_prec_precacc_123.txt.gz
Total_Precipitation_Accumulation
0.02 0.01 0.10 0.06 0.08 0.07 0.10 0.10 0.17 0.29 0.45 0.46 0.70 0.56 0.40 0.21 0.20 0.34 0.28 0.21 0.23 0.12 0.06 0.08 0.04 0.02 0.02 0.02 0.01 0.04 0.03 0.03 0.02 0.01 0.01 0.01 0.06 0.04 0.01 0.02 0.00 0.00 0.00
0.27 0.11 0.18 0.14 0.09 0.05 0.12 0.08 0.10 0.20 0.36 0.38 0.34 0.56 0.41 0.25 0.35 0.55 0.31 0.27 0.36 0.23 0.09 0.11 0.13 0.03 0.08 0.03 0.03 0.05 0.04 0.06 0.03 0.05 0.05 0.06 0.14 0.07 0.06 0.04 0.01 0.00 0.00
0.71 0.73 0.72 0.41 0.22 0.12 0.07 0.10 0.13 0.17 0.15 0.18 0.28 0.55 0.49 0.34 0.44 0.41 0.54 0.53 0.38 0.38 0.25 0.17 0.20 0.13 0.24 0.13 0.14 0.11 0.04 0.13 0.11 0.16 0.07 0.02 0.08 0.05 0.04 0.00 0.00 0.00 0.00
1.24 1.28 0.96 0.66 0.33 0.22 0.27 0.28 0.18 0.18 0.11 0.13 0.16 0.32 0.44 0.39 0.24 0.38 0.61 0.58 0.33 0.43 0.54 0.40 0.31 0.29 0.44 0.40 0.24 0.30 0.18 0.21 0.16 0.10 0.06 0.06 0.05 0.05 0.16 0.03 0.01 0.01 0.00
1.81 1.71 1.68 1.19 0.90 0.90 0.92 0.86 0.71 0.60 0.41 0.23 0.14 0.27 0.48 0.50 0.30 0.39 0.52 0.44 0.53 0.37 0.38 0.42 0.37 0.64 0.48 0.48 0.39 0.39 0.31 0.23 0.17 0.15 0.08 0.04 0.04 0.05 0.05 0.03 0.02 0.06 0.03
1.53 1.68 1.41 1.12 1.08 1.44 1.48 1.82 1.29 1.21 1.13 0.79 0.51 0.44 0.44 0.27 0.51 0.63 0.40 0.56 0.59 0.55 0.54 0.45 0.40 0.49 0.58 0.47 0.29 0.19 0.32 0.37 0.45 0.35 0.15 0.13 0.11 0.12 0.11 0.09 0.03 0.05 0.02
1.02 1.33 1.57 1.50 1.48 1.38 1.51 1.76 1.77 1.93 1.61 1.36 1.08 1.00 0.81 0.64 0.64 0.40 0.40 0.38 0.67 0.76 0.63 0.56 0.51 0.30 0.35 0.23 0.28 0.30 0.36 0.43 0.42 0.35 0.19 0.21 0.18 0.27 0.21 0.14 0.14 0.15 0.06
0.64 0.64 0.93 1.32 1.83 1.79 1.45 1.35 1.58 1.54 1.42 1.29 1.14 1.22 1.05 0.80 0.60 0.56 0.76 0.45 0.45 0.53 0.62 0.51 0.43 0.41 0.37 0.22 0.25 0.22 0.21 0.25 0.38 0.28 0.19 0.14 0.15 0.14 0.10 0.11 0.15 0.09 0.07
0.76 0.80 0.94 1.13 1.35 1.70 1.67 1.49 1.48 1.43 1.12 1.08 1.31 1.53 1.15 0.93 0.79 0.56 0.80 0.85 0.56 0.64 0.80 0.62 0.48 0.38 0.50 0.48 0.30 0.26 0.13 0.11 0.19 0.16 0.06 0.05 0.07 0.11 0.07 0.05 0.09 0.24 0.16
0.93 0.94 0.84 0.88 0.91 0.93 1.07 1.12 0.97 1.07 1.03 0.79 0.62 0.51 0.62 0.75 0.88 0.75 0.78 0.61 0.48 0.48 0.45 0.46 0.45 0.23 0.49 0.49 0.25 0.22 0.11 0.16 0.16 0.13 0.10 0.05 0.06 0.08 0.11 0.08 0.16 0.28 0.21
1.62 1.35 0.89 0.85 0.96 0.89 0.84 1.10 1.33 1.34 1.08 0.68 0.61 0.78 0.86 1.00 1.09 1.05 0.87 0.62 0.48 0.34 0.36 0.39 0.32 0.44 0.45 0.50 0.35 0.27 0.20 0.17 0.19 0.09 0.10 0.11 0.10 0.08 0.19 0.23 0.23 0.34 0.28
1.52 1.80 2.28 1.69 1.54 1.59 1.65 1.43 1.10 0.91 1.04 0.94 0.89 0.67 0.60 0.74 0.87 0.84 0.84 0.66 0.52 0.29 0.22 0.30 0.39 0.38 0.49 0.49 0.49 0.47 0.36 0.20 0.11 0.12 0.10 0.10 0.11 0.11 0.18 0.27 0.46 0.47 0.48
0.56 0.54 0.72 0.76 0.82 1.18 1.12 0.80 0.76 0.69 0.59 0.54 0.49 0.43 0.45 0.53 0.46 0.56 0.70 0.52 0.43 0.31 0.26 0.33 0.34 0.40 0.37 0.34 0.33 0.30 0.28 0.23 0.18 0.20 0.16 0.16 0.15 0.21 0.24 0.41 0.42 0.37 0.44
0.39 0.46 0.50 0.50 0.55 0.50 0.68 0.76 0.51 0.63 0.61 0.57 0.63 0.74 0.75 0.68 0.49 0.52 0.78 0.80 0.73 0.51 0.48 0.36 0.35 0.31 0.29 0.24 0.26 0.26 0.20 0.22 0.21 0.19 0.18 0.21 0.33 0.47 0.50 0.54 0.51 0.65 0.68
0.13 0.30 0.45 0.50 0.53 0.56 0.63 0.85 1.07 0.98 0.82 0.88 0.94 0.94 0.85 0.78 0.82 1.05 1.22 1.29 1.34 1.48 1.41 0.94 0.80 0.61 0.57 0.40 0.33 0.30 0.27 0.24 0.25 0.47 0.68 0.81 0.81 0.87 0.75 0.82 0.94 1.09 1.21
0.27 0.44 0.59 0.65 0.71 0.78 0.94 1.09 1.28 1.25 1.22 1.33 1.46 1.34 1.62 2.18 2.80 2.61 3.00 3.25 3.06 2.83 2.39 1.81 1.40 0.89 0.69 0.69 0.73 0.59 0.46 0.40 0.42 0.81 0.99 0.98 1.00 0.91 0.84 0.93 0.95 0.86 0.84
0.35 0.27 0.24 0.38 0.66 0.73 0.85 0.85 0.86 1.04 1.05 1.10 1.39 1.57 1.55 1.32 1.19 1.32 1.66 1.72 1.65 1.41 0.85 0.55 0.48 0.47 0.52 0.71 0.78 0.70 0.64 0.56 0.73 1.04 1.18 1.06 0.98 0.91 1.00 0.92 0.94 0.94 0.87
0.77 0.97 0.95 0.74 0.68 0.57 0.63 0.71 0.94 1.01 0.95 0.80 0.62 0.63 0.51 0.53 0.76 0.86 1.05 0.81 0.45 0.43 0.28 0.36 0.27 0.36 0.37 0.35 0.40 0.44 0.43 0.56 0.80 1.00 1.01 0.90 1.00 1.02 0.88 0.78 0.97 1.08 1.03
1.28 0.90 1.01 1.40 1.53 1.32 1.23 1.04 0.62 0.39 0.40 0.34 0.36 0.44 0.54 0.57 0.74 0.77 0.72 0.46 0.40 0.37 0.47 0.49 0.52 0.72 0.71 0.65 0.69 0.65 0.63 1.00 1.26 1.55 1.82 1.82 1.95 2.25 2.34 2.54 3.13 3.82 3.75
1.74 2.34 1.99 1.76 1.84 1.84 1.85 1.96 1.75 1.40 1.27 1.01 0.92 0.82 0.87 0.92 0.82 0.87 0.85 0.96 0.85 0.90 1.10 1.08 1.04 1.08 1.12 1.12 1.33 1.47 1.45 1.64 1.74 2.05 2.28 2.38 2.77 3.27 3.59 3.81 3.50 3.02 2.57
1.40 1.34 1.45 1.44 1.80 2.03 2.03 2.15 2.15 2.09 2.07 2.02 2.09 2.14 2.31 2.19 1.73 1.67 1.73 1.80 1.59 1.60 1.98 2.28 2.67 3.20 3.36 3.49 3.55 3.61 3.44 3.41 3.42 3.45 3.97 4.11 4.03 3.88 3.70 3.02 2.47 2.32 2.17
0.55 0.89 1.08 1.30 0.84 0.78 0.79 0.74 0.88 0.93 0.98 1.15 1.14 1.33 1.61 1.59 1.38 1.51 1.49 1.44 1.46 1.65 1.92 1.98 2.05 2.16 2.28 2.50 2.49 2.12 1.77 2.00 2.13 2.27 2.31 2.35 2.31 2.38 2.60 2.43 2.04 1.78 1.64
0.28 0.40 0.48 0.80 1.32 1.29 1.40 1.25 1.05 0.74 0.71 0.73 0.88 0.66 0.43 0.46 0.41 0.43 0.43 0.43 0.44 0.42 0.55 0.53 0.51 0.44 0.32 0.31 0.35 0.32 0.26 0.28 0.33 0.46 0.54 0.64 0.78 0.82 0.87 0.77 0.70 0.64 0.64
0.12 0.49 0.87 0.70 0.64 0.67 0.64 1.15 1.93 2.20 1.91 1.64 1.32 1.20 1.13 0.82 0.71 0.78 0.82 0.64 0.57 0.55 0.45 0.44 0.33 0.31 0.25 0.28 0.31 0.31 0.30 0.39 0.41 0.32 0.29 0.31 0.30 0.43 0.33 0.36 0.40 0.40 0.42
0.13 0.16 0.44 0.94 1.08 0.93 0.95 0.89 0.73 0.72 0.89 1.13 1.36 1.22 1.15 1.08 0.94 0.82 0.70 0.64 0.65 0.75 0.58 0.50 0.42 0.38 0.34 0.28 0.23 0.21 0.28 0.32 0.27 0.34 0.30 0.27 0.25 0.26 0.28 0.26 0.23 0.25 0.22
0.19 0.21 0.21 0.27 0.46 0.62 0.72 0.85 1.21 1.43 0.99 0.69 0.70 0.81 0.99 1.04 0.94 0.85 0.83 0.85 0.80 0.78 0.80 0.74 0.69 0.62 0.55 0.51 0.49 0.47 0.40 0.30 0.29 0.31 0.26 0.21 0.22 0.25 0.25 0.23 0.23 0.24 0.24

GFSGL_prec_precacc_129.txt.gz
Total_Precipitation_Accumulation
0.02 0.01 0.10 0.06 0.08 0.07 0.10 0.15 0.17 0.29 0.45 0.49 0.71 0.56 0.41 0.29 0.30 0.51 0.38 0.22 0.25 0.15 0.07 0.09 0.05 0.03 0.02 0.02 0.01 0.04 0.03 0.03 0.02 0.01 0.01 0.05 0.08 0.06 0.02 0.03 0.13 0.05 0.00
0.27 0.11 0.18 0.14 0.09 0.05 0.12 0.08 0.10 0.20 0.36 0.38 0.35 0.56 0.41 0.25 0.37 0.70 0.39 0.29 0.44 0.25 0.10 0.13 0.17 0.05 0.12 0.03 0.03 0.06 0.04 0.06 0.03 0.06 0.06 0.11 0.18 0.11 0.07 0.05 0.02 0.00 0.00
0.71 0.73 0.72 0.41 0.22 0.12 0.07 0.10 0.13 0.17 0.15 0.18 0.29 0.57 0.50 0.34 0.44 0.50 0.63 0.58 0.40 0.39 0.26 0.22 0.27 0.21 0.33 0.17 0.19 0.13 0.05 0.21 0.17 0.21 0.10 0.04 0.10 0.06 0.06 0.02 0.02 0.01 0.00
1.24 1.28 0.96 0.66 0.33 0.22 0.27 0.28 0.18 0.18 0.11 0.13 0.16 0.34 0.46 0.40 0.24 0.38 0.69 0.64 0.43 0.48 0.60 0.42 0.32 0.32 0.60 0.54 0.33 0.39 0.24 0.36 0.33 0.26 0.16 0.06 0.05 0.08 0.17 0.09 0.07 0.04 0.00
1.81 1.71 1.68 1.19 0.90 0.90 0.92 0.86 0.72 0.62 0.42 0.24 0.15 0.31 0.51 0.50 0.30 0.39 0.56 0.54 0.60 0.46 0.48 0.54 0.45 0.76 0.68 0.66 0.55 0.55 0.53 0.40 0.30 0.25 0.10 0.05 0.12 0.14 0.07 0.07 0.11 0.10 0.06
1.54 1.68 1.41 1.13 1.10 1.46 1.54 1.95 1.44 1.34 1.23 0.90 0.62 0.56 0.54 0.29 0.51 0.63 0.41 0.58 0.63 0.62 0.66 0.58 0.48 0.62 0.63 0.49 0.32 0.30 0.51 0.58 0.65 0.51 0.22 0.22 0.32 0.24 0.12 0.11 0.16 0.14 0.09
1.03 1.34 1.59 1.55 1.51 1.40 1.57 1.92 1.93 2.12 1.80 1.54 1.26 1.17 0.94 0.73 0.65 0.41 0.40 0.38 0.69 0.80 0.68 0.65 0.59 0.40 0.55 0.32 0.40 0.31 0.37 0.44 0.46 0.45 0.27 0.30 0.29 0.31 0.23 0.18 0.27 0.28 0.16
0.69 0.67 0.95 1.34 1.87 1.84 1.48 1.42 1.80 1.84 1.77 1.64 1.43 1.40 1.19 0.92 0.70 0.64 0.77 0.46 0.46 0.56 0.67 0.55 0.51 0.51 0.49 0.38 0.33 0.27 0.25 0.26 0.38 0.28 0.22 0.19 0.22 0.18 0.10 0.18 0.29 0.20 0.12
0.88 0.96 1.04 1.22 1.42 1.78 1.72 1.51 1.58 1.80 1.62 1.49 1.63 1.81 1.36 1.11 0.92 0.65 0.83 0.86 0.57 0.67 0.83 0.63 0.52 0.42 0.63 0.60 0.37 0.34 0.22 0.12 0.19 0.16 0.06 0.05 0.07 0.11 0.07 0.06 0.23 0.41 0.39
1.01 0.99 0.87 0.90 0.92 0.94 1.09 1.14 1.05 1.22 1.38 1.19 0.95 0.72 0.75 0.84 0.99 0.86 0.88 0.67 0.51 0.49 0.46 0.46 0.45 0.24 0.51 0.50 0.28 0.26 0.16 0.19 0.16 0.13 0.11 0.05 0.06 0.08 0.11 0.09 0.21 0.37 0.32
1.65 1.39 0.90 0.87 0.98 0.93 0.90 1.19 1.44 1.52 1.37 1.19 1.07 1.18 1.23 1.30 1.28 1.20 1.01 0.81 0.65 0.49 0.46 0.44 0.34 0.45 0.45 0.50 0.36 0.28 0.21 0.18 0.19 0.09 0.10 0.11 0.10 0.08 0.19 0.23 0.23 0.34 0.28
1.53 1.81 2.28 1.69 1.54 1.60 1.72 1.58 1.31 1.11 1.28 1.32 1.52 1.45 1.34 1.31 1.38 1.11 0.97 0.83 0.73 0.50 0.48 0.57 0.64 0.62 0.57 0.53 0.51 0.47 0.37 0.20 0.12 0.12 0.10 0.10 0.11 0.11 0.18 0.27 0.46 0.47 0.48
0.57 0.58 0.75 0.77 0.83 1.19 1.19 0.82 0.78 0.71 0.62 0.58 0.56 0.51 0.54 0.63 0.57 0.66 0.75 0.57 0.53 0.41 0.36 0.42 0.43 0.51 0.47 0.42 0.38 0.34 0.31 0.25 0.19 0.22 0.18 0.17 0.16 0.21 0.24 0.41 0.42 0.37 0.44
0.41 0.51 0.52 0.52 0.56 0.51 0.68 0.77 0.51 0.63 0.62 0.58 0.63 0.74 0.76 0.69 0.53 0.57 0.81 0.87 0.79 0.54 0.51 0.38 0.36 0.32 0.30 0.25 0.28 0.28 0.22 0.22 0.21 0.19 0.18 0.21 0.33 0.47 0.50 0.54 0.51 0.65 0.68
0.13 0.32 0.46 0.50 0.54 0.56 0.64 0.86 1.09 0.99 0.86 0.90 0.98 0.98 0.88 0.85 1.02 1.24 1.35 1.48 1.48 1.58 1.46 0.97 0.82 0.62 0.58 0.41 0.34 0.31 0.28 0.24 0.25 0.47 0.68 0.81 0.81 0.87 0.75 0.82 0.94 1.09 1.21
0.27 0.44 0.59 0.65 0.72 0.78 0.95 1.12 1.32 1.28 1.27 1.37 1.51 1.42 1.67 2.21 2.85 2.76 3.14 3.37 3.23 3.04 2.56 1.96 1.53 0.98 0.77 0.74 0.77 0.64 0.51 0.42 0.42 0.81 0.99 0.98 1.00 0.91 0.84 0.93 0.95 0.86 0.84
0.35 0.27 0.24 0.38 0.66 0.73 0.85 0.85 0.87 1.04 1.05 1.10 1.40 1.58 1.56 1.32 1.20 1.34 1.68 1.73 1.66 1.44 0.90 0.62 0.54 0.53 0.58 0.74 0.79 0.71 0.65 0.57 0.73 1.04 1.18 1.06 0.99 0.91 1.00 0.92 0.94 0.94 0.87
0.77 0.97 0.95 0.74 0.68 0.57 0.63 0.71 0.94 1.01 0.95 0.80 0.62 0.63 0.51 0.53 0.76 0.86 1.05 0.81 0.45 0.43 0.28 0.37 0.28 0.37 0.37 0.35 0.40 0.44 0.43 0.56 0.80 1.00 1.01 0.90 1.00 1.02 0.88 0.78 0.97 1.08 1.03
1.28 0.90 1.01 1.40 1.53 1.32 1.23 1.04 0.62 0.39 0.40 0.34 0.36 0.44 0.54 0.57 0.74 0.77 0.72 0.46 0.40 0.37 0.47 0.49 0.52 0.72 0.71 0.65 0.69 0.65 0.63 1.00 1.26 1.55 1.82 1.82 1.95 2.25 2.34 2.54 3.13 3.82 3.75
1.74 2.34 1.99 1.76 1.84 1.84 1.85 1.96 1.75 1.40 1.27 1.01 0.92 0.82 0.87 0.92 0.82 0.87 0.85 0.96 0.85 0.90 1.10 1.08 1.04 1.08 1.12 1.12 1.33 1.47 1.45 1.64 1.74 2.05 2.28 2.38 2.77 3.27 3.59 3.81 3.50 3.02 2.57
1.40 1.34 1.45 1.44 1.80 2.03 2.03 2.15 2.15 2.09 2.07 2.02 2.09 2.14 2.31 2.19 1.73 1.67 1.73 1.80 1.59 1.60 1.98 2.28 2.67 3.20 3.36 3.49 3.55 3.61 3.44 3.41 3.42 3.45 3.97 4.11 4.03 3.88 3.70 3.02 2.47 2.32 2.17
0.55 0.89 1.08 1.30 0.84 0.78 0.79 0.74 0.88 0.93 0.98 1.15 1.14 1.33 1.61 1.59 1.38 1.51 1.49 1.44 1.46 1.65 1.92 1.98 2.05 2.16 2.28 2.50 2.49 2.12 1.77 2.00 2.13 2.27 2.31 2.35 2.31 2.38 2.60 2.43 2.04 1.78 1.64
0.28 0.40 0.48 0.80 1.32 1.29 1.40 1.25 1.05 0.74 0.71 0.73 0.88 0.66 0.43 0.46 0.41 0.43 0.43 0.43 0.44 0.42 0.55 0.53 0.51 0.44 0.32 0.31 0.35 0.32 0.26 0.28 0.33 0.46 0.54 0.64 0.78 0.82 0.87 0.77 0.70 0.64 0.64
0.12 0.49 0.87 0.70 0.64 0.67 0.64 1.15 1.93 2.20 1.91 1.64 1.32 1.20 1.13 0.82 0.71 0.78 0.82 0.64 0.57 0.55 0.45 0.44 0.33 0.31 0.25 0.28 0.31 0.31 0.30 0.39 0.41 0.32 0.29 0.31 0.30 0.43 0.33 0.36 0.40 0.40 0.42
0.13 0.16 0.44 0.94 1.08 0.93 0.95 0.89 0.73 0.72 0.89 1.13 1.36 1.22 1.15 1.08 0.94 0.82 0.70 0.64 0.65 0.75 0.58 0.50 0.42 0.38 0.34 0.28 0.23 0.21 0.28 0.32 0.27 0.34 0.30 0.27 0.25 0.26 0.28 0.26 0.23 0.25 0.22
0.20 0.21 0.22 0.27 0.46 0.62 0.73 0.86 1.21 1.43 1.00 0.70 0.70 0.81 0.99 1.04 0.94 0.85 0.83 0.85 0.80 0.78 0.80 0.74 0.69 0.62 0.55 0.51 0.49 0.47 0.40 0.30 0.29 0.31 0.26 0.21 0.22 0.25 0.25 0.23 0.23 0.24 0.24

GFSGL_prec_precacc_132.txt.gz
Total_Precipitation_Accumulation
0.02 0.01 0.10 0.06 0.08 0.07 0.14 0.20 0.19 0.34 0.53 0.53 0.75 0.58 0.42 0.31 0.33 0.57 0.43 0.28 0.33 0.21 0.09 0.11 0.07 0.04 0.02 0.02 0.01 0.04 0.03 0.03 0.02 0.01 0.02 0.06 0.10 0.07 0.03 0.08 0.15 0.07 0.00
0.27 0.11 0.18 0.14 0.09 0.05 0.12 0.09 0.11 0.23 0.41 0.41 0.41 0.62 0.44 0.28 0.42 0.75 0.42 0.36 0.57 0.31 0.14 0.14 0.17 0.05 0.14 0.03 0.04 0.06 0.04 0.07 0.04 0.06 0.06 0.12 0.20 0.11 0.07 0.09 0.05 0.00 0.00
0.71 0.73 0.72 0.41 0.22 0.12 0.07 0.10 0.14 0.21 0.19 0.19 0.35 0.71 0.61 0.41 0.47 0.51 0.65 0.60 0.43 0.44 0.34 0.28 0.28 0.26 0.39 0.19 0.21 0.15 0.08 0.23 0.22 0.24 0.11 0.04 0.11 0.07 0.13 0.09 0.07 0.02 0.00
1.24 1.28 0.96 0.66 0.33 0.22 0.27 0.28 0.18 0.19 0.13 0.14 0.18 0.39 0.49 0.43 0.26 0.38 0.69 0.65 0.45 0.51 0.71 0.49 0.35 0.42 0.71 0.59 0.35 0.44 0.27 0.39 0.39 0.31 0.16 0.07 0.10 0.12 0.30 0.19 0.16 0.10 0.01
1.81 1.71 1.68 1.19 0.90 0.90 0.92 0.87 0.72 0.63 0.42 0.25 0.16 0.32 0.54 0.51 0.31 0.40 0.58 0.55 0.62 0.51 0.56 0.61 0.48 0.84 0.77 0.75 0.61 0.62 0.57 0.44 0.35 0.27 0.16 0.15 0.17 0.32 0.62 0.35 0.27 0.21 0.10
1.54 1.69 1.41 1.17 1.16 1.50 1.58 2.02 1.48 1.37 1.23 0.90 0.63 0.58 0.54 0.29 0.61 0.68 0.42 0.60 0.64 0.64 0.68 0.61 0.55 0.74 0.78 0.62 0.34 0.30 0.52 0.59 0.68 0.55 0.29 0.29 0.41 0.55 0.34 0.27 0.28 0.24 0.16
1.04 1.35 1.59 1.58 1.58 1.45 1.63 1.96 1.94 2.13 1.82 1.55 1.27 1.18 0.95 0.79 0.74 0.45 0.41 0.38 0.70 0.83 0.71 0.66 0.60 0.42 0.63 0.41 0.53 0.37 0.37 0.44 0.47 0.47 0.30 0.33 0.35 0.43 0.34 0.26 0.33 0.35 0.26
0.75 0.69 0.98 1.38 1.92 1.89 1.53 1.47 1.87 1.89 1.81 1.70 1.50 1.50 1.33 1.04 0.72 0.65 0.78 0.46 0.48 0.61 0.72 0.60 0.60 0.59 0.58 0.58 0.47 0.38 0.31 0.31 0.41 0.28 0.23 0.21 0.31 0.22 0.16 0.24 0.36 0.27 0.22
0.98 1.03 1.14 1.39 1.69 1.97 1.90 1.65 1.67 1.90 1.74 1.62 1.75 1.92 1.45 1.18 0.94 0.67 0.86 0.86 0.58 0.71 0.87 0.68 0.55 0.46 0.69 0.72 0.48 0.45 0.41 0.23 0.24 0.16 0.06 0.05 0.08 0.11 0.07 0.06 0.25 0.48 0.50
1.06 1.03 0.96 0.97 1.01 1.04 1.16 1.18 1.07 1.23 1.39 1.22 1.00 0.76 0.80 0.87 1.00 0.89 0.91 0.68 0.52 0.51 0.46 0.47 0.46 0.24 0.51 0.50 0.30 0.35 0.35 0.31 0.19 0.13 0.11 0.05 0.06 0.08 0.11 0.09 0.21 0.39 0.36
1.73 1.41 0.92 0.91 1.00 0.95 0.96 1.20 1.44 1.52 1.37 1.19 1.08 1.20 1.24 1.31 1.29 1.25 1.14 0.93 0.79 0.58 0.50 0.47 0.37 0.48 0.47 0.51 0.37 0.30 0.25 0.21 0.22 0.10 0.10 0.11 0.10 0.08 0.19 0.23 0.23 0.34 0.29
1.54 1.85 2.33 1.70 1.54 1.60 1.72 1.58 1.31 1.11 1.28 1.32 1.52 1.46 1.38 1.37 1.45 1.22 1.06 0.88 0.78 0.54 0.54 0.64 0.75 0.86 0.74 0.63 0.57 0.50 0.39 0.22 0.12 0.13 0.11 0.11 0.12 0.12 0.20 0.28 0.47 0.48 0.51
0.58 0.59 0.75 0.78 0.83 1.19 1.19 0.82 0.78 0.71 0.62 0.58 0.56 0.51 0.54 0.63 0.58 0.68 0.75 0.57 0.53 0.41 0.37 0.45 0.49 0.60 0.52 0.46 0.43 0.38 0.35 0.27 0.21 0.23 0.20 0.18 0.18 0.23 0.27 0.43 0.44 0.39 0.45
0.42 0.52 0.52 0.52 0.56 0.51 0.68 0.77 0.51 0.63 0.62 0.58 0.63 0.74 0.76 0.69 0.53 0.57 0.81 0.88 0.79 0.54 0.52 0.38 0.36 0.32 0.31 0.26 0.29 0.29 0.22 0.23 0.22 0.20 0.19 0.21 0.34 0.47 0.50 0.54 0.51 0.66 0.68
0.13 0.32 0.46 0.50 0.54 0.56 0.64 0.86 1.09 0.99 0.86 0.90 0.98 0.98 0.88 0.85 1.02 1.24 1.35 1.49 1.49 1.59 1.48 0.98 0.83 0.63 0.59 0.41 0.34 0.32 0.31 0.31 0.32 0.53 0.71 0.83 0.83 0.88 0.75 0.82 0.94 1.09 1.21
0.27 0.44 0.59 0.65 0.72 0.78 0.95 1.12 1.32 1.28 1.27 1.37 1.51 1.42 1.67 2.21 2.85 2.76 3.14 3.37 3.23 3.05 2.57 1.97 1.54 1.01 0.80 0.78 0.82 0.69 0.54 0.45 0.45 0.82 0.99 0.98 1.00 0.92 0.84 0.93 0.95 0.86 0.84
0.35 0.27 0.24 0.38 0.66 0.73 0.85 0.85 0.87 1.04 1.05 1.10 1.40 1.58 1.56 1.32 1.20 1.34 1.68 1.73 1.66 1.44 0.90 0.62 0.54 0.53 0.58 0.75 0.80 0.72 0.65 0.57 0.73 1.04 1.18 1.06 0.99 0.91 1.00 0.92 0.94 0.94 0.87
0.77 0.97 0.95 0.74 0.68 0.57 0.63 0.71 0.94 1.01 0.95 0.80 0.62 0.63 0.51 0.53 0.76 0.86 1.05 0.81 0.45 0.43 0.28 0.37 0.28 0.37 0.37 0.35 0.40 0.44 0.43 0.56 0.80 1.00 1.01 0.90 1.00 1.02 0.88 0.78 0.97 1.08 1.03
1.28 0.90 1.01 1.40 1.53 1.32 1.23 1.04 0.62 0.39 0.40 0.34 0.36 0.44 0.54 0.57 0.74 0.77 0.72 0.46 0.40 0.37 0.47 0.49 0.52 0.72 0.71 0.65 0.69 0.65 0.63 1.00 1.26 1.55 1.82 1.82 1.95 2.25 2.34 2.54 3.13 3.82 3.75
1.74 2.34 1.99 1.76 1.84 1.84 1.85 1.96 1.75 1.40 1.27 1.01 0.92 0.82 0.87 0.92 0.82 0.87 0.85 0.96 0.85 0.90 1.10 1.08 1.04 1.08 1.12 1.12 1.33 1.47 1.45 1.64 1.74 2.05 2.28 2.38 2.77 3.27 3.59 3.81 3.50 3.02 2.57
1.40 1.34 1.45 1.44 1.80 2.03 2.03 2.15 2.15 2.09 2.07 2.02 2.09 2.14 2.31 2.19 1.73 1.67 1.73 1.80 1.59 1.60 1.98 2.28 2.67 3.20 3.36 3.49 3.55 3.61 3.44 3.41 3.42 3.45 3.97 4.11 4.03 3.88 3.70 3.02 2.47 2.32 2.17
0.55 0.89 1.08 1.30 0.84 0.78 0.79 0.74 0.88 0.93 0.98 1.15 1.14 1.33 1.61 1.59 1.38 1.51 1.49 1.44 1.46 1.65 1.92 1.98 2.05 2.16 2.28 2.50 2.49 2.12 1.77 2.00 2.13 2.27 2.31 2.35 2.31 2.38 2.60 2.43 2.04 1.78 1.64
0.28 0.40 0.48 0.80 1.32 1.29 1.40 1.25 1.05 0.74 0.71 0.73 0.88 0.66 0.43 0.46 0.41 0.43 0.43 0.43 0.44 0.42 0.55 0.53 0.51 0.44 0.32 0.31 0.35 0.32 0.26 0.28 0.33 0.46 0.54 0.64 0.78 0.82 0.87 0.77 0.70 0.64 0.64
0.12 0.49 0.87 0.70 0.64 0.67 0.64 1.15 1.93 2.20 1.91 1.64 1.32 1.20 1.13 0.82 0.71 0.78 0.82 0.64 0.57 0.55 0.45 0.44 0.33 0.31 0.25 0.28 0.31 0.31 0.30 0.39 0.41 0.32 0.29 0.31 0.30 0.43 0.33 0.36 0.40 0.40 0.42
0.13 0.16 0.44 0.94 1.08 0.93 0.95 0.89 0.73 0.72 0.89 1.13 1.36 1.22 1.15 1.08 0.94 0.82 0.70 0.64 0.65 0.75 0.58 0.50 0.42 0.38 0.34 0.28 0.23 0.21 0.28 0.32 0.27 0.34 0.30 0.27 0.25 0.26 0.28 0.26 0.23 0.25 0.22
0.20 0.21 0.22 0.27 0.46 0.62 0.73 0.86 1.21 1.43 1.00 0.70 0.70 0.81 0.99 1.04 0.94 0.85 0.83 0.85 0.80 0.78 0.80 0.74 0.69 0.62 0.55 0.51 0.49 0.47 0.40 0.30 0.29 0.31 0.26 0.21 0.22 0.25 0.25 0.23 0.23 0.24 0.24

GFSGL_prec_precacc_135.txt.gz
Total_Precipitation_Accumulation
0.02 0.01 0.10 0.06 0.08 0.09 0.16 0.22 0.22 0.37 0.55 0.56 0.82 0.62 0.45 0.34 0.34 0.57 0.45 0.29 0.34 0.21 0.09 0.13 0.08 0.04 0.02 0.02 0.01 0.05 0.03 0.04 0.02 0.01 0.03 0.07 0.12 0.13 0.07 0.08 0.15 0.07 0.00
0.27 0.11 0.18 0.14 0.09 0.05 0.14 0.10 0.14 0.25 0.41 0.44 0.45 0.65 0.46 0.30 0.42 0.75 0.42 0.36 0.57 0.32 0.16 0.15 0.17 0.06 0.14 0.03 0.05 0.08 0.05 0.09 0.04 0.07 0.07 0.13 0.21 0.19 0.16 0.14 0.06 0.01 0.00
0.71 0.73 0.72 0.41 0.22 0.12 0.07 0.10 0.16 0.22 0.20 0.21 0.38 0.74 0.62 0.41 0.47 0.51 0.65 0.60 0.43 0.45 0.34 0.28 0.28 0.26 0.39 0.19 0.21 0.15 0.08 0.23 0.23 0.24 0.11 0.04 0.11 0.15 0.33 0.31 0.21 0.07 0.01
1.24 1.28 0.96 0.66 0.33 0.22 0.27 0.28 0.18 0.19 0.13 0.14 0.18 0.39 0.49 0.43 0.26 0.38 0.69 0.65 0.45 0.51 0.71 0.49 0.35 0.42 0.71 0.59 0.35 0.46 0.30 0.40 0.42 0.31 0.17 0.07 0.13 0.15 0.42 0.51 0.67 0.26 0.04
1.88 1.72 1.68 1.19 0.90 0.90 0.92 0.87 0.72 0.63 0.42 0.25 0.16 0.32 0.54 0.51 0.31 0.42 0.58 0.55 0.62 0.51 0.56 0.61 0.48 0.85 0.82 0.77 0.62 0.62 0.61 0.48 0.38 0.30 0.19 0.16 0.20 0.37 0.72 0.70 0.62 0.43 0.16
1.69 1.74 1.46 1.19 1.17 1.50 1.59 2.02 1.49 1.38 1.24 0.91 0.64 0.60 0.56 0.32 0.65 0.75 0.45 0.62 0.67 0.65 0.68 0.61 0.55 0.76 0.80 0.64 0.35 0.31 0.53 0.61 0.70 0.57 0.36 0.35 0.44 0.59 0.38 0.30 0.36 0.39 0.29
1.47 1.49 1.66 1.63 1.61 1.48 1.71 1.99 2.00 2.23 1.93 1.64 1.37 1.28 1.08 0.98 0.91 0.54 0.50 0.39 0.72 0.87 0.74 0.67 0.60 0.43 0.63 0.42 0.56 0.41 0.37 0.44 0.47 0.48 0.32 0.40 0.40 0.50 0.44 0.35 0.44 0.44 0.36
1.13 0.95 1.12 1.55 2.07 2.01 1.70 1.73 2.04 2.02 1.91 1.77 1.56 1.55 1.43 1.17 0.84 0.74 0.83 0.47 0.49 0.64 0.75 0.62 0.63 0.61 0.59 0.62 0.49 0.52 0.45 0.41 0.46 0.29 0.23 0.24 0.33 0.23 0.17 0.29 0.39 0.32 0.31
1.08 1.11 1.22 1.47 1.76 2.03 2.03 1.79 1.74 1.95 1.83 1.71 1.82 1.97 1.58 1.25 1.03 0.73 0.88 0.87 0.58 0.72 0.89 0.71 0.57 0.46 0.69 0.72 0.49 0.47 0.48 0.31 0.30 0.19 0.07 0.05 0.08 0.11 0.07 0.07 0.26 0.53 0.57
1.23 1.19 1.06 1.05 1.12 1.13 1.25 1.26 1.15 1.30 1.45 1.25 1.01 0.77 0.82 0.89 1.02 0.90 0.91 0.68 0.52 0.52 0.46 0.47 0.46 0.24 0.51 0.50 0.30 0.35 0.40 0.35 0.21 0.16 0.13 0.05 0.06 0.08 0.11 0.09 0.21 0.39 0.36
1.88 1.52 1.00 0.98 1.09 1.05 1.03 1.26 1.47 1.53 1.37 1.19 1.08 1.20 1.25 1.32 1.30 1.26 1.14 0.93 0.80 0.67 0.59 0.51 0.38 0.51 0.49 0.53 0.38 0.31 0.30 0.29 0.29 0.14 0.12 0.12 0.11 0.09 0.19 0.23 0.23 0.34 0.29
1.56 1.97 2.42 1.73 1.56 1.60 1.72 1.58 1.31 1.11 1.28 1.32 1.52 1.46 1.38 1.37 1.45 1.22 1.06 0.89 0.79 0.54 0.54 0.65 0.78 0.92 0.80 0.71 0.62 0.56 0.44 0.26 0.14 0.13 0.11 0.11 0.12 0.13 0.20 0.28 0.48 0.49 0.52
0.60 0.62 0.76 0.78 0.83 1.19 1.19 0.82 0.78 0.71 0.62 0.58 0.56 0.51 0.54 0.63 0.58 0.68 0.75 0.57 0.53 0.41 0.37 0.45 0.49 0.61 0.54 0.47 0.44 0.39 0.35 0.28 0.21 0.23 0.20 0.19 0.18 0.23 0.27 0.43 0.44 0.39 0.46
0.44 0.52 0.52 0.52 0.56 0.51 0.68 0.77 0.51 0.63 0.62 0.58 0.63 0.74 0.76 0.69 0.53 0.57 0.81 0.88 0.79 0.54 0.52 0.38 0.36 0.32 0.31 0.26 0.29 0.29 0.22 0.23 0.23 0.20 0.21 0.23 0.34 0.47 0.50 0.55 0.52 0.66 0.68
0.13 0.32 0.46 0.50 0.54 0.56 0.64 0.86 1.09 0.99 0.86 0.90 0.98 0.98 0.88 0.85 1.02 1.24 1.35 1.49 1.49 1.59 1.48 0.98 0.83 0.63 0.59 0.41 0.34 0.32 0.31 0.31 0.34 0.55 0.74 0.83 0.83 0.89 0.77 0.83 0.94 1.09 1.21
0.27 0.44 0.59 0.65 0.72 0.78 0.95 1.12 1.32 1.28 1.27 1.37 1.51 1.42 1.67 2.21 2.85 2.76 3.14 3.37 3.23 3.05 2.57 1.97 1.54 1.01 0.80 0.78 0.82 0.69 0.54 0.45 0.45 0.82 0.99 0.98 1.00 0.92 0.84 0.93 0.95 0.86 0.84
0.35 0.27 0.24 0.38 0.66 0.73 0.85 0.85 0.87 1.04 1.05 1.10 1.40 1.58 1.56 1.32 1.20 1.34 1.68 1.73 1.66 1.44 0.90 0.62 0.54 0.53 0.58 0.75 0.80 0.72 0.65 0.57 0.73 1.04 1.18 1.06 0.99 0.91 1.00 0.92 0.94 0.94 0.87
0.77 0.97 0.95 0.74 0.68 0.57 0.63 0.71 0.94 1.01 0.95 0.80 0.62 0.63 0.51 0.53 0.76 0.86 1.05 0.81 0.45 0.43 0.28 0.37 0.28 0.37 0.37 0.35 0.40 0.44 0.43 0.56 0.80 1.00 1.01 0.90 1.00 1.02 0.88 0.78 0.97 1.08 1.03
1.28 0.90 1.01 1.40 1.53 1.32 1.23 1.04 0.62 0.39 0.40 0.34 0.36 0.44 0.54 0.57 0.74 0.77 0.72 0.46 0.40 0.37 0.47 0.49 0.52 0.72 0.71 0.65 0.69 0.65 0.63 1.00 1.26 1.55 1.82 1.82 1.95 2.25 2.34 2.54 3.13 3.82 3.75
1.74 2.34 1.99 1.76 1.84 1.84 1.85 1.96 1.75 1.40 1.27 1.01 0.92 0.82 0.87 0.92 0.82 0.87 0.85 0.96 0.85 0.90 1.10 1.08 1.04 1.08 1.12 1.12 1.33 1.47 1.45 1.64 1.74 2.05 2.28 2.38 2.77 3.27 3.59 3.81 3.50 3.02 2.57
1.40 1.34 1.45 1.44 1.80 2.03 2.03 2.15 2.15 2.09 2.07 2.02 2.09 2.14 2.31 2.19 1.73 1.67 1.73 1.80 1.59 1.60 1.98 2.28 2.67 3.20 3.36 3.49 3.55 3.61 3.44 3.41 3.42 3.45 3.97 4.11 4.03 3.88 3.70 3.02 2.47 2.32 2.17
0.55 0.89 1.08 1.30 0.84 0.78 0.79 0.74 0.88 0.93 0.98 1.15 1.14 1.33 1.61 1.59 1.38 1.51 1.49 1.44 1.46 1.65 1.92 1.98 2.05 2.16 2.28 2.50 2.49 2.12 1.77 2.00 2.13 2.27 2.31 2.35 2.31 2.38 2.60 2.43 2.04 1.78 1.64
0.28 0.40 0.48 0.80 1.32 1.29 1.40 1.25 1.05 0.74 0.71 0.73 0.88 0.66 0.43 0.46 0.41 0.43 0.43 0.43 0.44 0.42 0.55 0.53 0.51 0.44 0.32 0.31 0.35 0.32 0.26 0.28 0.33 0.46 0.54 0.64 0.78 0.82 0.87 0.77 0.70 0.64 0.64
0.12 0.49 0.87 0.70 0.64 0.67 0.64 1.15 1.93 2.20 1.91 1.64 1.32 1.20 1.13 0.82 0.71 0.78 0.82 0.64 0.57 0.55 0.45 0.44 0.33 0.31 0.25 0.28 0.31 0.31 0.30 0.39 0.41 0.32 0.29 0.31 0.30 0.43 0.33 0.36 0.40 0.40 0.42
0.13 0.16 0.44 0.94 1.08 0.93 0.95 0.89 0.73 0.72 0.89 1.13 1.36 1.22 1.15 1.08 0.94 0.82 0.70 0.64 0.65 0.75 0.58 0.50 0.42 0.38 0.34 0.28 0.23 0.21 0.28 0.32 0.27 0.34 0.30 0.27 0.25 0.26 0.28 0.26 0.23 0.25 0.22
0.20 0.21 0.22 0.27 0.46 0.62 0.73 0.86 1.21 1.43 1.00 0.70 0.70 0.81 0.99 1.04 0.94 0.85 0.83 0.85 0.80 0.78 0.80 0.74 0.69 0.62 0.55 0.51 0.49 0.47 0.40 0.30 0.29 0.31 0.26 0.21 0.22 0.25 0.25 0.23 0.23 0.24 0.24

GFSGL_prec_precacc_138.txt.gz
Total_Precipitation_Accumulation
0.02 0.01 0.10 0.06 0.08 0.09 0.16 0.22 0.22 0.37 0.55 0.56 0.82 0.62 0.45 0.34 0.34 0.57 0.45 0.30 0.34 0.21 0.09 0.13 0.08 0.04 0.03 0.05 0.02 0.06 0.05 0.07 0.04 0.03 0.05 0.08 0.14 0.16 0.12 0.13 0.18 0.07 0.00
0.27 0.11 0.18 0.14 0.09 0.05 0.14 0.10 0.14 0.25 0.41 0.44 0.45 0.65 0.46 0.30 0.42 0.75 0.42 0.36 0.57 0.32 0.16 0.15 0.17 0.06 0.15 0.03 0.05 0.08 0.05 0.11 0.08 0.09 0.11 0.16 0.27 0.22 0.22 0.25 0.09 0.01 0.00
0.71 0.73 0.72 0.41 0.22 0.12 0.07 0.10 0.16 0.22 0.20 0.21 0.38 0.74 0.63 0.41 0.47 0.51 0.65 0.60 0.43 0.45 0.34 0.28 0.28 0.26 0.41 0.22 0.22 0.16 0.08 0.23 0.23 0.24 0.11 0.07 0.14 0.20 0.41 0.44 0.28 0.11 0.02
1.24 1.28 0.96 0.66 0.33 0.22 0.27 0.28 0.18 0.19 0.13 0.15 0.18 0.39 0.50 0.43 0.26 0.38 0.69 0.66 0.48 0.52 0.72 0.49 0.35 0.42 0.76 0.66 0.39 0.54 0.33 0.45 0.43 0.32 0.18 0.10 0.16 0.18 0.51 0.59 0.70 0.34 0.09
1.93 1.73 1.68 1.19 0.90 0.90 0.92 0.87 0.72 0.63 0.42 0.25 0.16 0.33 0.59 0.61 0.35 0.48 0.61 0.59 0.66 0.52 0.61 0.63 0.49 0.85 0.82 0.77 0.63 0.67 0.67 0.62 0.45 0.31 0.19 0.16 0.21 0.38 0.77 0.77 0.62 0.43 0.18
1.83 1.81 1.47 1.19 1.17 1.50 1.59 2.02 1.49 1.38 1.29 0.97 0.71 0.68 0.65 0.43 0.76 0.86 0.49 0.67 0.72 0.70 0.74 0.63 0.55 0.76 0.82 0.64 0.35 0.31 0.53 0.63 0.73 0.57 0.37 0.35 0.47 0.63 0.42 0.31 0.38 0.40 0.30
1.65 1.64 1.80 1.68 1.63 1.51 1.73 2.01 2.02 2.30 2.01 1.74 1.50 1.39 1.19 1.02 0.98 0.66 0.61 0.43 0.73 0.89 0.76 0.68 0.62 0.43 0.64 0.43 0.56 0.41 0.37 0.44 0.47 0.48 0.33 0.41 0.41 0.52 0.45 0.36 0.45 0.52 0.48
1.94 1.72 1.39 1.77 2.25 2.14 1.83 1.91 2.26 2.15 1.94 1.81 1.57 1.56 1.45 1.25 0.99 0.90 0.98 0.56 0.51 0.64 0.76 0.62 0.63 0.61 0.59 0.62 0.49 0.52 0.45 0.42 0.47 0.30 0.23 0.24 0.33 0.23 0.17 0.29 0.40 0.36 0.39
1.79 1.56 1.64 1.66 1.96 2.33 2.30 2.03 1.92 2.03 1.93 1.85 1.91 2.01 1.68 1.29 1.16 0.82 0.94 0.90 0.60 0.74 0.89 0.71 0.57 0.46 0.69 0.72 0.49 0.47 0.48 0.31 0.30 0.19 0.07 0.05 0.08 0.11 0.07 0.07 0.26 0.53 0.58
1.65 1.57 1.30 1.31 1.31 1.26 1.40 1.45 1.27 1.40 1.56 1.32 1.06 0.80 0.85 0.89 1.02 0.90 0.91 0.68 0.52 0.52 0.46 0.47 0.47 0.26 0.51 0.50 0.30 0.35 0.40 0.36 0.21 0.16 0.14 0.06 0.06 0.09 0.12 0.09 0.21 0.39 0.36
2.35 2.05 1.20 1.12 1.32 1.15 1.12 1.36 1.57 1.59 1.41 1.21 1.08 1.20 1.25 1.32 1.30 1.26 1.14 0.93 0.80 0.67 0.59 0.51 0.38 0.52 0.49 0.53 0.38 0.31 0.31 0.31 0.37 0.18 0.17 0.17 0.14 0.10 0.20 0.23 0.24 0.34 0.30
1.62 2.27 2.72 1.84 1.61 1.65 1.77 1.60 1.32 1.12 1.29 1.32 1.52 1.46 1.38 1.37 1.45 1.22 1.06 0.89 0.79 0.54 0.54 0.65 0.78 0.92 0.81 0.71 0.62 0.56 0.44 0.27 0.17 0.19 0.16 0.14 0.13 0.13 0.20 0.29 0.48 0.49 0.52
0.73 0.82 0.90 0.88 0.87 1.20 1.20 0.82 0.78 0.71 0.62 0.58 0.56 0.51 0.54 0.63 0.58 0.68 0.75 0.57 0.53 0.41 0.37 0.45 0.50 0.61 0.54 0.47 0.44 0.39 0.35 0.28 0.21 0.23 0.20 0.19 0.18 0.23 0.27 0.43 0.44 0.39 0.46
0.46 0.56 0.54 0.55 0.57 0.51 0.68 0.77 0.51 0.63 0.62 0.58 0.63 0.74 0.76 0.69 0.53 0.57 0.81 0.88 0.79 0.54 0.52 0.38 0.36 0.32 0.31 0.26 0.29 0.29 0.22 0.23 0.23 0.20 0.21 0.23 0.34 0.47 0.50 0.55 0.52 0.66 0.68
0.13 0.32 0.46 0.50 0.54 0.56 0.64 0.86 1.09 0.99 0.86 0.90 0.98 0.98 0.88 0.85 1.02 1.24 1.36 1.49 1.49 1.59 1.48 0.98 0.83 0.63 0.59 0.41 0.34 0.32 0.31 0.31 0.34 0.55 0.74 0.83 0.83 0.89 0.77 0.83 0.94 1.09 1.21
0.27 0.44 0.59 0.66 0.72 0.78 0.95 1.12 1.32 1.28 1.27 1.37 1.51 1.42 1.67 2.21 2.85 2.76 3.14 3.37 3.23 3.05 2.57 1.97 1.54 1.01 0.80 0.78 0.82 0.69 0.54 0.45 0.45 0.82 0.99 0.98 1.00 0.92 0.84 0.93 0.95 0.86 0.84
0.35 0.27 0.24 0.38 0.66 0.73 0.85 0.85 0.87 1.04 1.05 1.10 1.40 1.58 1.56 1.32 1.20 1.34 1.68 1.73 1.66 1.44 0.90 0.62 0.54 0.53 0.58 0.75 0.80 0.72 0.65 0.57 0.73 1.04 1.18 1.06 0.99 0.91 1.00 0.92 0.94 0.94 0.87
0.77 0.97 0.95 0.74 0.68 0.57 0.63 0.71 0.94 1.01 0.95 0.80 0.62 0.63 0.51 0.53 0.76 0.86 1.05 0.81 0.45 0.43 0.28 0.37 0.28 0.37 0.37 0.35 0.40 0.44 0.43 0.56 0.80 1.00 1.01 0.90 1.00 1.02 0.88 0.78 0.97 1.08 1.03
1.28 0.90 1.01 1.40 1.53 1.32 1.23 1.04 0.62 0.39 0.40 0.34 0.36 0.44 0.54 0.57 0.74 0.77 0.72 0.46 0.40 0.37 0.47 0.49 0.52 0.72 0.71 0.65 0.69 0.65 0.63 1.00 1.26 1.55 1.82 1.82 1.95 2.25 2.34 2.54 3.13 3.82 3.75
1.74 2.34 1.99 1.76 1.84 1.84 1.85 1.96 1.75 1.40 1.27 1.01 0.92 0.82 0.87 0.92 0.82 0.87 0.85 0.96 0.85 0.90 1.10 1.08 1.04 1.08 1.12 1.12 1.33 1.47 1.45 1.64 1.74 2.05 2.28 2.38 2.77 3.27 3.59 3.81 3.50 3.02 2.57
1.40 1.34 1.45 1.44 1.80 2.03 2.03 2.15 2.15 2.09 2.07 2.02 2.09 2.14 2.31 2.19 1.73 1.67 1.73 1.80 1.59 1.60 1.98 2.28 2.67 3.20 3.36 3.49 3.55 3.61 3.44 3.41 3.42 3.45 3.97 4.11 4.03 3.88 3.70 3.02 2.47 2.32 2.17
0.55 0.89 1.08 1.30 0.84 0.78 0.79 0.74 0.88 0.93 0.98 1.15 1.14 1.33 1.61 1.59 1.38 1.51 1.49 1.44 1.46 1.65 1.92 1.98 2.05 2.16 2.28 2.50 2.49 2.12 1.77 2.00 2.13 2.27 2.31 2.35 2.31 2.38 2.60 2.43 2.04 1.78 1.64
0.28 0.40 0.48 0.80 1.32 1.29 1.40 1.25 1.05 0.74 0.71 0.73 0.88 0.66 0.43 0.46 0.41 0.43 0.43 0.43 0.44 0.42 0.55 0.53 0.51 0.44 0.32 0.31 0.35 0.32 0.26 0.28 0.33 0.46 0.54 0.64 0.78 0.82 0.87 0.77 0.70 0.64 0.64
0.12 0.49 0.87 0.70 0.64 0.67 0.64 1.15 1.93 2.20 1.91 1.64 1.32 1.20 1.13 0.82 0.71 0.78 0.82 0.64 0.57 0.55 0.45 0.44 0.33 0.31 0.25 0.28 0.31 0.31 0.30 0.39 0.41 0.32 0.29 0.31 0.30 0.43 0.33 0.36 0.40 0.40 0.42
0.13 0.16 0.44 0.94 1.08 0.93 0.95 0.89 0.73 0.72 0.89 1.13 1.36 1.22 1.15 1.08 0.94 0.82 0.70 0.64 0.65 0.75 0.58 0.50 0.42 0.38 0.34 0.28 0.23 0.21 0.28 0.32 0.27 0.34 0.30 0.27 0.25 0.26 0.28 0.26 0.23 0.25 0.22
0.20 0.21 0.22 0.27 0.46 0.62 0.73 0.86 1.21 1.43 1.00 0.70 0.70 0.81 0.99 1.04 0.94 0.85 0.83 0.85 0.80 0.78 0.80 0.74 0.69 0.62 0.55 0.51 0.49 0.47 0.40 0.30 0.29 0.31 0.26 0.21 0.22 0.25 0.25 0.23 0.23 0.24 0.24

GFSGL_prec_precacc_141.txt.gz
Total_Precipitation_Accumulation
0.02 0.01 0.10 0.06 0.08 0.09 0.16 0.22 0.22 0.37 0.55 0.57 0.83 0.62 0.45 0.34 0.34 0.57 0.45 0.30 0.34 0.21 0.09 0.13 0.09 0.04 0.03 0.05 0.02 0.06 0.05 0.07 0.04 0.04 0.07 0.10 0.15 0.16 0.13 0.13 0.18 0.08 0.00
0.27 0.11 0.18 0.14 0.09 0.05 0.14 0.10 0.14 0.25 0.41 0.44 0.45 0.65 0.46 0.30 0.42 0.76 0.42 0.36 0.57 0.32 0.16 0.15 0.18 0.06 0.15 0.07 0.06 0.08 0.05 0.11 0.08 0.09 0.11 0.17 0.27 0.22 0.22 0.26 0.14 0.02 0.00
0.71 0.73 0.72 0.41 0.22 0.12 0.07 0.10 0.16 0.22 0.20 0.21 0.39 0.76 0.63 0.41 0.51 0.55 0.68 0.61 0.43 0.45 0.34 0.28 0.28 0.26 0.42 0.25 0.26 0.18 0.08 0.23 0.24 0.24 0.12 0.08 0.14 0.20 0.41 0.45 0.30 0.12 0.02
1.24 1.28 0.96 0.66 0.33 0.22 0.27 0.28 0.18 0.19 0.13 0.15 0.18 0.39 0.50 0.47 0.29 0.38 0.69 0.66 0.48 0.52 0.72 0.49 0.35 0.42 0.76 0.67 0.41 0.57 0.35 0.50 0.53 0.39 0.29 0.16 0.18 0.20 0.51 0.60 0.72 0.35 0.09
2.02 1.76 1.68 1.19 0.90 0.90 0.92 0.87 0.72 0.63 0.42 0.25 0.16 0.33 0.60 0.61 0.35 0.50 0.64 0.60 0.66 0.52 0.68 0.65 0.49 0.86 0.83 0.77 0.63 0.72 0.68 0.65 0.48 0.34 0.21 0.18 0.22 0.38 0.77 0.77 0.62 0.43 0.18
2.08 2.02 1.58 1.20 1.17 1.50 1.59 2.02 1.49 1.38 1.29 0.98 0.72 0.69 0.66 0.43 0.79 0.92 0.55 0.73 0.74 0.71 0.78 0.67 0.59 0.78 0.88 0.70 0.38 0.31 0.53 0.63 0.73 0.57 0.37 0.35 0.47 0.63 0.42 0.31 0.38 0.40 0.30
1.88 1.87 1.97 1.85 1.69 1.53 1.74 2.01 2.02 2.30 2.02 1.76 1.53 1.41 1.22 1.03 0.98 0.73 0.76 0.50 0.76 0.91 0.83 0.75 0.65 0.44 0.66 0.46 0.59 0.42 0.37 0.44 0.47 0.48 0.33 0.41 0.41 0.52 0.45 0.36 0.45 0.52 0.48
2.36 2.40 1.67 1.91 2.37 2.24 1.89 1.92 2.27 2.19 1.99 1.86 1.60 1.62 1.55 1.40 1.08 0.94 1.01 0.60 0.52 0.65 0.77 0.63 0.64 0.62 0.60 0.63 0.50 0.52 0.45 0.42 0.47 0.30 0.23 0.25 0.35 0.25 0.18 0.30 0.40 0.37 0.40
2.03 2.03 2.07 2.03 2.22 2.53 2.49 2.17 2.09 2.20 2.05 2.05 2.16 2.18 1.80 1.33 1.28 0.93 0.95 0.90 0.60 0.74 0.90 0.73 0.58 0.47 0.70 0.73 0.50 0.47 0.48 0.31 0.30 0.19 0.07 0.05 0.08 0.11 0.07 0.07 0.26 0.53 0.59
1.72 1.78 1.46 1.46 1.52 1.51 1.71 1.82 1.65 1.74 1.84 1.51 1.17 0.86 0.90 0.95 1.09 0.96 0.93 0.69 0.52 0.52 0.46 0.47 0.47 0.26 0.52 0.51 0.31 0.35 0.40 0.36 0.21 0.16 0.14 0.06 0.08 0.12 0.16 0.14 0.28 0.48 0.42
2.44 2.49 1.70 1.76 1.72 1.66 1.55 1.82 1.89 1.96 1.67 1.38 1.20 1.25 1.27 1.33 1.30 1.26 1.14 0.93 0.80 0.67 0.59 0.51 0.39 0.53 0.49 0.54 0.39 0.31 0.31 0.32 0.38 0.19 0.18 0.21 0.22 0.17 0.26 0.27 0.25 0.35 0.31
1.62 2.36 3.02 2.31 2.20 2.21 2.41 2.26 1.75 1.51 1.56 1.40 1.54 1.46 1.38 1.37 1.45 1.22 1.06 0.89 0.79 0.54 0.54 0.65 0.78 0.92 0.81 0.71 0.62 0.56 0.45 0.27 0.17 0.20 0.17 0.15 0.14 0.14 0.21 0.29 0.48 0.49 0.52
0.82 1.03 0.96 1.04 1.12 1.44 1.49 1.15 1.03 0.83 0.67 0.61 0.57 0.51 0.54 0.63 0.58 0.68 0.75 0.58 0.53 0.41 0.37 0.45 0.50 0.61 0.54 0.47 0.44 0.39 0.35 0.28 0.21 0.23 0.20 0.19 0.18 0.23 0.27 0.43 0.44 0.39 0.46
0.57 0.71 0.60 0.60 0.64 0.56 0.72 0.81 0.55 0.67 0.65 0.59 0.63 0.74 0.76 0.69 0.53 0.57 0.81 0.88 0.79 0.54 0.52 0.38 0.36 0.32 0.31 0.26 0.29 0.29 0.22 0.23 0.23 0.20 0.21 0.23 0.34 0.47 0.50 0.55 0.52 0.66 0.68
0.21 0.46 0.56 0.56 0.58 0.56 0.64 0.86 1.09 1.00 0.87 0.90 0.98 0.98 0.88 0.85 1.02 1.24 1.36 1.49 1.49 1.59 1.48 0.98 0.83 0.63 0.59 0.41 0.34 0.32 0.31 0.31 0.34 0.55 0.74 0.83 0.83 0.89 0.77 0.83 0.94 1.09 1.21
0.28 0.45 0.61 0.67 0.72 0.78 0.95 1.12 1.32 1.28 1.27 1.37 1.51 1.42 1.67 2.21 2.85 2.76 3.14 3.37 3.23 3.05 2.57 1.97 1.54 1.01 0.80 0.78 0.82 0.69 0.54 0.45 0.45 0.82 0.99 0.98 1.00 0.92 0.84 0.93 0.95 0.86 0.84
0.36 0.27 0.24 0.38 0.66 0.73 0.85 0.85 0.87 1.04 1.05 1.10 1.40 1.58 1.56 1.32 1.20 1.34 1.68 1.73 1.66 1.44 0.90 0.62 0.54 0.53 0.58 0.75 0.80 0.72 0.65 0.57 0.73 1.04 1.18 1.06 0.99 0.91 1.00 0.92 0.94 0.94 0.87
0.77 0.98 0.95 0.74 0.68 0.57 0.63 0.71 0.94 1.01 0.95 0.80 0.62 0.63 0.51 0.53 0.76 0.86 1.05 0.81 0.45 0.43 0.28 0.37 0.28 0.37 0.37 0.35 0.40 0.44 0.43 0.56 0.80 1.00 1.01 0.90 1.00 1.02 0.88 0.78 0.97 1.08 1.03
1.28 0.90 1.01 1.40 1.53 1.32 1.23 1.04 0.62 0.39 0.40 0.34 0.36 0.44 0.54 0.57 0.74 0.77 0.72 0.46 0.40 0.37 0.47 0.49 0.52 0.72 0.71 0.65 0.69 0.65 0.63 1.00 1.26 1.55 1.82 1.82 1.95 2.25 2.34 2.54 3.13 3.82 3.75
1.74 2.34 1.99 1.76 1.84 1.84 1.85 1.96 1.75 1.40 1.27 1.01 0.92 0.82 0.87 0.92 0.82 0.87 0.85 0.96 0.85 0.90 1.10 1.08 1.04 1.08 1.12 1.12 1.33 1.47 1.45 1.64 1.74 2.05 2.28 2.38 2.77 3.27 3.59 3.81 3.50 3.02 2.57
1.40 1.34 1.45 1.44 1.80 2.03 2.03 2.15 2.15 2.09 2.07 2.02 2.09 2.14 2.31 2.19 1.73 1.67 1.73 1.80 1.59 1.60 1.98 2.28 2.67 3.20 3.36 3.49 3.55 3.61 3.44 3.41 3.42 3.45 3.97 4.11 4.03 3.88 3.70 3.02 2.47 2.32 2.17
0.55 0.89 1.08 1.30 0.84 0.78 0.79 0.74 0.88 0.93 0.98 1.15 1.14 1.33 1.61 1.59 1.38 1.51 1.49 1.44 1.46 1.65 1.92 1.98 2.05 2.16 2.28 2.50 2.49 2.12 1.77 2.00 2.13 2.27 2.31 2.35 2.31 2.38 2.60 2.43 2.04 1.78 1.64
0.28 0.40 0.48 0.80 1.32 1.29 1.40 1.25 1.05 0.74 0.71 0.73 0.88 0.66 0.43 0.46 0.41 0.43 0.43 0.43 0.44 0.42 0.55 0.53 0.51 0.44 0.32 0.31 0.35 0.32 0.26 0.28 0.33 0.46 0.54 0.64 0.78 0.82 0.87 0.77 0.70 0.64 0.64
0.12 0.49 0.87 0.70 0.64 0.67 0.64 1.15 1.93 2.20 1.91 1.64 1.32 1.20 1.13 0.82 0.71 0.78 0.82 0.64 0.57 0.55 0.45 0.44 0.33 0.31 0.25 0.28 0.31 0.31 0.30 0.39 0.41 0.32 0.29 0.31 0.30 0.43 0.33 0.36 0.40 0.40 0.42
0.13 0.16 0.44 0.94 1.08 0.93 0.95 0.89 0.73 0.72 0.89 1.13 1.36 1.22 1.15 1.08 0.94 0.82 0.70 0.64 0.65 0.75 0.58 0.50 0.42 0.38 0.34 0.28 0.23 0.21 0.28 0.32 0.27 0.34 0.30 0.27 0.25 0.26 0.28 0.26 0.23 0.25 0.22
0.20 0.21 0.22 0.27 0.46 0.62 0.73 0.86 1.21 1.43 1.00 0.70 0.70 0.81 0.99 1.04 0.94 0.85 0.83 0.85 0.80 0.78 0.80 0.74 0.69 0.62 0.55 0.51 0.49 0.47 0.40 0.30 0.29 0.31 0.26 0.21 0.22 0.25 0.25 0.23 0.23 0.24 0.24

GFSGL_prec_precacc_144.txt.gz
Total_Precipitation_Accumulation
0.02 0.01 0.10 0.06 0.08 0.09 0.16 0.22 0.22 0.37 0.55 0.57 0.83 0.62 0.45 0.34 0.34 0.57 0.47 0.30 0.34 0.21 0.09 0.13 0.11 0.07 0.03 0.06 0.05 0.07 0.05 0.07 0.04 0.04 0.08 0.10 0.16 0.16 0.15 0.13 0.19 0.09 0.00
0.27 0.11 0.18 0.14 0.09 0.05 0.14 0.10 0.14 0.25 0.41 0.44 0.45 0.65 0.46 0.30 0.42 0.76 0.42 0.36 0.57 0.32 0.16 0.15 0.18 0.06 0.16 0.07 0.06 0.12 0.07 0.11 0.08 0.09 0.11 0.18 0.27 0.22 0.23 0.26 0.16 0.05 0.01
0.71 0.73 0.72 0.41 0.22 0.12 0.07 0.10 0.16 0.22 0.20 0.21 0.39 0.77 0.63 0.42 0.52 0.58 0.72 0.63 0.43 0.45 0.34 0.28 0.28 0.26 0.42 0.25 0.26 0.19 0.08 0.23 0.24 0.24 0.13 0.08 0.14 0.20 0.41 0.45 0.31 0.13 0.03
1.24 1.28 0.96 0.66 0.33 0.22 0.27 0.28 0.18 0.19 0.13 0.15 0.18 0.39 0.52 0.50 0.34 0.43 0.70 0.66 0.48 0.52 0.72 0.49 0.35 0.42 0.76 0.67 0.41 0.57 0.35 0.50 0.53 0.39 0.30 0.17 0.18 0.20 0.51 0.60 0.72 0.35 0.09
2.02 1.76 1.68 1.19 0.90 0.90 0.92 0.87 0.72 0.63 0.42 0.25 0.16 0.37 0.72 0.70 0.43 0.54 0.64 0.60 0.66 0.52 0.68 0.65 0.50 0.87 0.88 0.78 0.63 0.72 0.68 0.65 0.48 0.34 0.22 0.20 0.22 0.38 0.77 0.77 0.62 0.44 0.18
2.13 2.03 1.60 1.22 1.17 1.50 1.59 2.02 1.49 1.38 1.29 0.98 0.72 0.69 0.72 0.51 0.82 0.92 0.55 0.73 0.74 0.71 0.78 0.70 0.65 0.84 1.00 0.73 0.39 0.32 0.54 0.64 0.73 0.57 0.37 0.35 0.47 0.63 0.42 0.31 0.38 0.40 0.30
1.98 1.93 2.04 1.93 1.73 1.58 1.74 2.01 2.03 2.30 2.02 1.76 1.55 1.43 1.24 1.04 1.00 0.75 0.82 0.55 0.76 0.91 0.83 0.76 0.66 0.47 0.72 0.47 0.59 0.42 0.37 0.44 0.47 0.48 0.33 0.43 0.45 0.56 0.49 0.40 0.47 0.52 0.49
2.49 2.50 1.77 2.04 2.48 2.31 1.92 1.93 2.27 2.20 2.00 1.87 1.64 1.67 1.58 1.48 1.23 1.06 1.11 0.67 0.52 0.65 0.78 0.64 0.64 0.62 0.60 0.64 0.50 0.52 0.45 0.42 0.47 0.30 0.23 0.25 0.36 0.27 0.20 0.32 0.42 0.38 0.40
2.23 2.14 2.12 2.16 2.53 2.78 2.59 2.22 2.15 2.21 2.05 2.08 2.23 2.30 1.98 1.52 1.47 1.00 0.99 0.91 0.60 0.74 0.90 0.73 0.58 0.47 0.71 0.74 0.50 0.47 0.48 0.31 0.31 0.20 0.07 0.05 0.08 0.11 0.07 0.07 0.26 0.54 0.61
1.77 1.83 1.50 1.51 1.62 1.70 1.89 1.93 1.80 1.90 1.96 1.67 1.36 1.05 1.09 1.11 1.20 1.07 0.97 0.69 0.55 0.55 0.47 0.47 0.48 0.27 0.53 0.52 0.31 0.36 0.41 0.37 0.21 0.16 0.15 0.07 0.10 0.15 0.22 0.21 0.40 0.62 0.59
2.48 2.56 1.74 1.79 1.74 1.71 1.66 2.10 2.20 2.26 1.99 1.65 1.41 1.42 1.37 1.39 1.32 1.27 1.15 0.93 0.80 0.68 0.59 0.51 0.39 0.54 0.50 0.54 0.39 0.31 0.31 0.32 0.39 0.19 0.18 0.21 0.22 0.17 0.26 0.29 0.27 0.38 0.33
1.63 2.37 3.14 2.42 2.25 2.29 2.49 2.59 2.88 2.74 2.80 2.40 2.27 1.95 1.56 1.44 1.48 1.23 1.07 0.89 0.80 0.54 0.54 0.65 0.78 0.93 0.81 0.72 0.62 0.57 0.45 0.27 0.17 0.20 0.17 0.16 0.14 0.15 0.21 0.29 0.48 0.49 0.52
0.87 1.04 0.97 1.10 1.17 1.48 1.60 1.27 1.31 1.43 1.27 1.32 0.97 0.81 0.73 0.70 0.60 0.68 0.75 0.58 0.53 0.41 0.37 0.45 0.50 0.61 0.54 0.47 0.44 0.39 0.35 0.28 0.21 0.23 0.20 0.19 0.18 0.23 0.27 0.43 0.44 0.39 0.46
0.64 0.80 0.63 0.62 0.69 0.63 0.78 0.87 0.59 0.72 0.72 0.68 0.73 0.79 0.80 0.71 0.54 0.57 0.81 0.88 0.79 0.54 0.52 0.38 0.36 0.32 0.31 0.26 0.29 0.29 0.22 0.23 0.23 0.20 0.21 0.23 0.34 0.47 0.50 0.55 0.52 0.66 0.68
0.31 0.59 0.63 0.58 0.61 0.60 0.66 0.87 1.09 1.01 0.89 0.92 1.00 0.99 0.88 0.85 1.02 1.24 1.36 1.49 1.49 1.59 1.48 0.98 0.83 0.63 0.59 0.41 0.34 0.32 0.31 0.31 0.34 0.55 0.74 0.83 0.83 0.89 0.77 0.83 0.94 1.09 1.21
0.36 0.54 0.67 0.69 0.73 0.79 0.96 1.12 1.32 1.28 1.29 1.38 1.51 1.42 1.67 2.21 2.85 2.76 3.14 3.37 3.23 3.05 2.57 1.97 1.54 1.01 0.80 0.78 0.82 0.69 0.54 0.45 0.45 0.82 0.99 0.98 1.00 0.92 0.84 0.93 0.95 0.86 0.84
0.36 0.27 0.24 0.39 0.66 0.73 0.85 0.85 0.87 1.04 1.06 1.10 1.40 1.58 1.56 1.32 1.20 1.34 1.68 1.73 1.66 1.44 0.90 0.62 0.54 0.53 0.58 0.75 0.80 0.72 0.65 0.57 0.73 1.04 1.18 1.06 0.99 0.91 1.00 0.92 0.94 0.94 0.87
0.78 0.98 0.96 0.75 0.69 0.58 0.63 0.71 0.95 1.01 0.95 0.80 0.62 0.63 0.51 0.53 0.76 0.86 1.05 0.81 0.45 0.43 0.28 0.37 0.28 0.37 0.37 0.35 0.40 0.44 0.43 0.56 0.80 1.00 1.01 0.90 1.00 1.02 0.88 0.78 0.97 1.08 1.03
1.28 0.90 1.01 1.40 1.53 1.32 1.23 1.04 0.62 0.39 0.40 0.34 0.36 0.44 0.54 0.57 0.74 0.77 0.72 0.46 0.40 0.37 0.47 0.49 0.52 0.72 0.71 0.65 0.69 0.65 0.63 1.00 1.26 1.55 1.82 1.82 1.95 2.25 2.34 2.54 3.13 3.82 3.75
1.75 2.34 1.99 1.76 1.84 1.84 1.85 1.96 1.75 1.40 1.27 1.01 0.92 0.82 0.87 0.92 0.82 0.87 0.85 0.96 0.85 0.90 1.10 1.08 1.04 1.08 1.12 1.12 1.33 1.47 1.45 1.64 1.74 2.05 2.28 2.38 2.77 3.27 3.59 3.81 3.50 3.02 2.57
1.40 1.34 1.45 1.44 1.80 2.03 2.03 2.15 2.15 2.09 2.07 2.02 2.09 2.14 2.31 2.19 1.73 1.67 1.73 1.80 1.59 1.60 1.98 2.28 2.67 3.20 3.36 3.49 3.55 3.61 3.44 3.41 3.42 3.45 3.97 4.11 4.03 3.88 3.70 3.02 2.47 2.32 2.17
0.55 0.89 1.08 1.30 0.84 0.78 0.79 0.74 0.88 0.93 0.98 1.15 1.14 1.33 1.61 1.59 1.38 1.51 1.49 1.44 1.46 1.65 1.92 1.98 2.05 2.16 2.28 2.50 2.49 2.12 1.77 2.00 2.13 2.27 2.31 2.35 2.31 2.38 2.60 2.43 2.04 1.78 1.64
0.28 0.40 0.48 0.80 1.32 1.29 1.40 1.25 1.05 0.74 0.71 0.73 0.88 0.66 0.43 0.46 0.41 0.43 0.43 0.43 0.44 0.42 0.55 0.53 0.51 0.44 0.32 0.31 0.35 0.32 0.26 0.28 0.33 0.46 0.54 0.64 0.78 0.82 0.87 0.77 0.70 0.64 0.64
0.12 0.49 0.87 0.70 0.64 0.67 0.64 1.15 1.93 2.20 1.91 1.64 1.32 1.20 1.13 0.82 0.71 0.78 0.82 0.64 0.57 0.55 0.45 0.44 0.33 0.31 0.25 0.28 0.31 0.31 0.30 0.39 0.41 0.32 0.29 0.31 0.30 0.43 0.33 0.36 0.40 0.40 0.42
0.13 0.16 0.44 0.94 1.08 0.93 0.95 0.89 0.73 0.72 0.89 1.13 1.36 1.22 1.15 1.08 0.94 0.82 0.70 0.64 0.65 0.75 0.58 0.50 0.42 0.38 0.34 0.28 0.23 0.21 0.28 0.32 0.27 0.34 0.30 0.27 0.25 0.26 0.28 0.26 0.23 0.25 0.22
0.20 0.21 0.22 0.27 0.46 0.62 0.73 0.86 1.21 1.43 1.00 0.70 0.70 0.81 0.99 1.04 0.94 0.85 0.83 0.85 0.80 0.78 0.80 0.74 0.69 0.62 0.55 0.51 0.49 0.47 0.40 0.30 0.29 0.31 0.26 0.21 0.22 0.25 0.25 0.23 0.23 0.24 0.24

GFSGL_prec_precacc_147.txt.gz
Total_Precipitation_Accumulation
0.02 0.01 0.10 0.06 0.08 0.09 0.16 0.22 0.22 0.37 0.55 0.57 0.83 0.62 0.45 0.34 0.35 0.57 0.48 0.31 0.40 0.28 0.11 0.14 0.11 0.08 0.05 0.11 0.11 0.11 0.17 0.17 0.06 0.04 0.08 0.10 0.16 0.17 0.15 0.13 0.19 0.09 0.00
0.27 0.11 0.18 0.14 0.09 0.05 0.14 0.10 0.14 0.25 0.41 0.44 0.45 0.65 0.46 0.30 0.42 0.76 0.45 0.38 0.58 0.33 0.16 0.15 0.18 0.06 0.16 0.07 0.06 0.19 0.18 0.21 0.14 0.11 0.14 0.21 0.31 0.23 0.23 0.26 0.16 0.05 0.01
0.71 0.73 0.72 0.41 0.22 0.12 0.07 0.10 0.16 0.22 0.20 0.23 0.40 0.78 0.63 0.42 0.52 0.59 0.78 0.68 0.46 0.47 0.34 0.28 0.28 0.26 0.42 0.25 0.26 0.20 0.10 0.24 0.27 0.24 0.14 0.08 0.15 0.20 0.41 0.45 0.31 0.13 0.03
1.24 1.28 0.96 0.66 0.33 0.22 0.27 0.28 0.18 0.19 0.13 0.16 0.22 0.43 0.55 0.56 0.34 0.48 0.73 0.71 0.57 0.52 0.72 0.49 0.36 0.44 0.78 0.70 0.44 0.60 0.36 0.50 0.54 0.39 0.30 0.17 0.19 0.20 0.51 0.60 0.72 0.35 0.09
2.02 1.76 1.68 1.19 0.90 0.90 0.92 0.87 0.72 0.63 0.42 0.25 0.21 0.43 0.79 0.76 0.48 0.61 0.73 0.64 0.67 0.52 0.68 0.65 0.56 0.97 0.96 0.90 0.73 0.83 0.70 0.65 0.49 0.36 0.24 0.20 0.22 0.39 0.78 0.78 0.62 0.44 0.18
2.13 2.03 1.60 1.22 1.17 1.50 1.59 2.02 1.49 1.38 1.29 0.98 0.72 0.70 0.76 0.58 0.92 0.97 0.62 0.81 0.76 0.72 0.80 0.70 0.66 0.85 1.04 0.77 0.40 0.32 0.54 0.64 0.74 0.58 0.37 0.36 0.47 0.63 0.42 0.31 0.38 0.40 0.30
2.02 1.99 2.06 1.93 1.73 1.58 1.77 2.01 2.03 2.30 2.02 1.76 1.55 1.44 1.26 1.09 1.03 0.78 0.87 0.63 0.81 0.93 0.84 0.76 0.66 0.47 0.73 0.49 0.59 0.42 0.37 0.44 0.47 0.48 0.33 0.43 0.45 0.56 0.49 0.41 0.48 0.53 0.49
2.52 2.54 1.82 2.06 2.50 2.34 1.95 1.93 2.27 2.20 2.00 1.87 1.64 1.70 1.62 1.50 1.24 1.11 1.26 0.77 0.53 0.67 0.79 0.64 0.64 0.62 0.60 0.64 0.50 0.53 0.45 0.42 0.47 0.30 0.23 0.25 0.36 0.27 0.20 0.32 0.42 0.38 0.42
2.25 2.16 2.13 2.18 2.55 2.81 2.65 2.24 2.15 2.21 2.05 2.08 2.23 2.30 1.98 1.53 1.52 1.12 1.13 1.02 0.69 0.80 0.95 0.75 0.59 0.47 0.71 0.74 0.50 0.47 0.48 0.31 0.32 0.23 0.11 0.08 0.10 0.12 0.08 0.07 0.26 0.55 0.62
1.78 1.84 1.50 1.51 1.62 1.71 1.94 2.01 1.86 1.92 1.97 1.68 1.37 1.07 1.13 1.15 1.25 1.14 1.03 0.71 0.55 0.55 0.48 0.49 0.49 0.27 0.53 0.52 0.31 0.36 0.41 0.38 0.23 0.18 0.17 0.09 0.10 0.16 0.22 0.21 0.40 0.63 0.62
2.49 2.57 1.74 1.80 1.74 1.71 1.67 2.14 2.27 2.33 2.07 1.73 1.49 1.49 1.43 1.45 1.36 1.30 1.18 0.94 0.81 0.68 0.59 0.51 0.39 0.54 0.50 0.54 0.39 0.31 0.31 0.32 0.39 0.19 0.18 0.21 0.22 0.17 0.26 0.29 0.27 0.38 0.33
1.63 2.37 3.14 2.43 2.27 2.30 2.50 2.60 2.90 2.82 2.94 2.66 2.60 2.24 1.80 1.61 1.59 1.33 1.13 0.93 0.82 0.55 0.54 0.65 0.78 0.93 0.81 0.72 0.62 0.57 0.45 0.27 0.17 0.20 0.17 0.16 0.14 0.15 0.21 0.29 0.48 0.49 0.52
0.88 1.04 0.97 1.12 1.25 1.56 1.64 1.34 1.40 1.64 1.55 1.58 1.51 1.40 1.42 1.26 0.93 0.89 0.87 0.64 0.57 0.42 0.37 0.45 0.50 0.61 0.54 0.47 0.44 0.39 0.35 0.28 0.21 0.23 0.20 0.19 0.18 0.23 0.27 0.43 0.44 0.39 0.46
0.68 0.82 0.63 0.63 0.71 0.66 0.82 0.90 0.63 0.76 0.78 0.75 0.81 0.94 0.99 0.89 0.68 0.68 0.89 0.94 0.82 0.55 0.52 0.38 0.36 0.32 0.31 0.26 0.29 0.29 0.22 0.23 0.23 0.20 0.21 0.23 0.34 0.47 0.50 0.55 0.52 0.66 0.68
0.36 0.66 0.63 0.59 0.62 0.61 0.70 0.91 1.12 1.02 0.90 0.93 1.01 1.01 0.91 0.89 1.07 1.27 1.37 1.50 1.49 1.59 1.48 0.98 0.83 0.63 0.59 0.41 0.34 0.32 0.31 0.31 0.34 0.55 0.74 0.83 0.83 0.89 0.77 0.83 0.94 1.09 1.21
0.42 0.67 0.74 0.70 0.75 0.80 1.02 1.18 1.36 1.31 1.33 1.44 1.54 1.44 1.69 2.22 2.86 2.76 3.15 3.37 3.23 3.05 2.57 1.97 1.54 1.01 0.80 0.78 0.82 0.69 0.54 0.45 0.45 0.82 0.99 0.98 1.00 0.92 0.84 0.93 0.95 0.86 0.84
0.39 0.36 0.35 0.47 0.73 0.78 0.89 0.89 0.88 1.04 1.06 1.11 1.41 1.59 1.57 1.33 1.21 1.34 1.68 1.73 1.66 1.44 0.90 0.62 0.54 0.53 0.58 0.75 0.80 0.72 0.65 0.57 0.73 1.04 1.18 1.06 0.99 0.91 1.00 0.92 0.94 0.94 0.87
0.78 0.98 0.96 0.76 0.69 0.59 0.64 0.72 0.95 1.01 0.95 0.80 0.62 0.63 0.51 0.53 0.76 0.86 1.05 0.81 0.45 0.43 0.28 0.37 0.28 0.37 0.37 0.35 0.40 0.44 0.43 0.56 0.80 1.00 1.01 0.90 1.00 1.02 0.88 0.78 0.97 1.08 1.03
1.28 0.90 1.01 1.40 1.53 1.33 1.23 1.04 0.62 0.39 0.41 0.34 0.36 0.44 0.54 0.57 0.74 0.77 0.72 0.46 0.40 0.37 0.47 0.49 0.52 0.72 0.71 0.65 0.69 0.65 0.63 1.00 1.26 1.55 1.82 1.82 1.95 2.25 2.34 2.54 3.13 3.82 3.75
1.75 2.35 1.99 1.76 1.84 1.84 1.85 1.96 1.75 1.40 1.27 1.01 0.92 0.82 0.87 0.92 0.82 0.87 0.85 0.96 0.85 0.90 1.10 1.08 1.04 1.08 1.12 1.12 1.33 1.47 1.45 1.64 1.74 2.05 2.28 2.38 2.77 3.27 3.59 3.81 3.50 3.02 2.57
1.40 1.35 1.45 1.44 1.80 2.03 2.03 2.15 2.15 2.09 2.07 2.02 2.09 2.14 2.31 2.19 1.73 1.67 1.73 1.80 1.59 1.60 1.98 2.28 2.67 3.20 3.36 3.49 3.55 3.61 3.44 3.41 3.42 3.45 3.97 4.11 4.03 3.88 3.70 3.02 2.47 2.32 2.17
0.55 0.89 1.08 1.30 0.84 0.78 0.79 0.74 0.88 0.93 0.98 1.15 1.14 1.33 1.61 1.59 1.38 1.51 1.49 1.44 1.46 1.65 1.92 1.98 2.05 2.16 2.28 2.50 2.49 2.12 1.77 2.00 2.13 2.27 2.31 2.35 2.31 2.38 2.60 2.43 2.04 1.78 1.64
0.28 0.40 0.48 0.80 1.32 1.29 1.40 1.25 1.05 0.74 0.71 0.73 0.88 0.66 0.43 0.46 0.41 0.43 0.43 0.43 0.44 0.42 0.55 0.53 0.51 0.44 0.32 0.31 0.35 0.32 0.26 0.28 0.33 0.46 0.54 0.64 0.78 0.82 0.87 0.77 0.70 0.64 0.64
0.12 0.49 0.87 0.70 0.64 0.67 0.64 1.15 1.93 2.20 1.91 1.64 1.32 1.20 1.13 0.82 0.71 0.78 0.82 0.64 0.57 0.55 0.45 0.44 0.33 0.31 0.25 0.28 0.31 0.31 0.30 0.39 0.41 0.32 0.29 0.31 0.30 0.43 0.33 0.36 0.40 0.40 0.42
0.13 0.16 0.44 0.94 1.08 0.93 0.95 0.89 0.73 0.72 0.89 1.13 1.36 1.22 1.15 1.08 0.94 0.82 0.70 0.64 0.65 0.75 0.58 0.50 0.42 0.38 0.34 0.28 0.23 0.21 0.28 0.32 0.27 0.34 0.30 0.27 0.25 0.26 0.28 0.26 0.23 0.25 0.22
0.20 0.21 0.22 0.27 0.46 0.62 0.73 0.86 1.21 1.43 1.00 0.70 0.70 0.81 0.99 1.04 0.94 0.85 0.83 0.85 0.80 0.78 0.80 0.74 0.69 0.62 0.55 0.51 0.49 0.47 0.40 0.30 0.29 0.31 0.26 0.21 0.22 0.25 0.25 0.23 0.23 0.24 0.24

GFSGL_prec_precacc_150.txt.gz
Total_Precipitation_Accumulation
0.02 0.01 0.10 0.06 0.08 0.09 0.16 0.22 0.22 0.37 0.55 0.60 0.87 0.66 0.51 0.39 0.36 0.64 0.61 0.36 0.45 0.31 0.13 0.16 0.11 0.09 0.06 0.13 0.16 0.16 0.28 0.25 0.09 0.05 0.08 0.10 0.17 0.25 0.16 0.14 0.19 0.09 0.00
0.27 0.11 0.18 0.14 0.09 0.05 0.14 0.10 0.14 0.25 0.41 0.44 0.45 0.68 0.52 0.37 0.45 0.78 0.51 0.39 0.60 0.36 0.17 0.15 0.18 0.06 0.16 0.08 0.07 0.20 0.19 0.22 0.17 0.12 0.16 0.24 0.38 0.27 0.26 0.28 0.16 0.05 0.01
0.71 0.73 0.72 0.41 0.22 0.12 0.07 0.10 0.16 0.22 0.20 0.23 0.43 0.86 0.74 0.49 0.58 0.61 0.84 0.70 0.47 0.51 0.36 0.31 0.31 0.28 0.44 0.26 0.27 0.20 0.10 0.25 0.30 0.25 0.14 0.09 0.18 0.24 0.43 0.46 0.31 0.13 0.03
1.24 1.28 0.96 0.66 0.33 0.22 0.27 0.28 0.18 0.19 0.13 0.16 0.24 0.47 0.62 0.63 0.40 0.54 0.87 0.83 0.61 0.55 0.77 0.52 0.37 0.46 0.81 0.76 0.48 0.61 0.37 0.50 0.57 0.44 0.31 0.18 0.21 0.23 0.52 0.62 0.76 0.37 0.10
2.02 1.76 1.68 1.19 0.90 0.90 0.92 0.87 0.72 0.63 0.42 0.25 0.24 0.45 0.80 0.78 0.55 0.72 0.82 0.67 0.73 0.56 0.73 0.68 0.59 1.06 1.05 0.99 0.82 0.91 0.79 0.72 0.59 0.47 0.29 0.23 0.24 0.44 0.81 0.81 0.65 0.48 0.25
2.13 2.03 1.60 1.22 1.17 1.50 1.59 2.02 1.49 1.38 1.29 0.98 0.72 0.70 0.78 0.59 0.93 0.98 0.65 0.89 0.87 0.76 0.83 0.73 0.74 0.94 1.05 0.77 0.40 0.34 0.56 0.66 0.79 0.64 0.42 0.40 0.52 0.65 0.45 0.33 0.42 0.43 0.43
2.03 1.99 2.06 1.94 1.73 1.58 1.77 2.02 2.03 2.31 2.03 1.76 1.55 1.44 1.27 1.11 1.03 0.78 0.87 0.75 0.93 0.98 0.88 0.79 0.72 0.51 0.74 0.49 0.60 0.42 0.37 0.44 0.47 0.49 0.36 0.44 0.45 0.56 0.49 0.42 0.52 0.57 0.52
2.53 2.56 1.83 2.07 2.51 2.35 1.95 1.94 2.28 2.20 2.00 1.87 1.64 1.70 1.62 1.50 1.24 1.11 1.27 0.83 0.59 0.70 0.80 0.65 0.65 0.63 0.60 0.64 0.53 0.53 0.45 0.42 0.47 0.30 0.23 0.25 0.36 0.27 0.20 0.32 0.42 0.39 0.42
2.27 2.17 2.14 2.19 2.56 2.82 2.66 2.26 2.16 2.23 2.08 2.11 2.24 2.32 1.99 1.53 1.52 1.12 1.15 1.06 0.71 0.81 0.96 0.77 0.61 0.49 0.75 0.76 0.51 0.47 0.48 0.31 0.32 0.24 0.11 0.08 0.10 0.12 0.08 0.07 0.26 0.56 0.63
1.82 1.85 1.51 1.51 1.63 1.73 1.96 2.04 1.89 1.97 2.00 1.70 1.39 1.09 1.14 1.16 1.25 1.15 1.04 0.72 0.55 0.56 0.50 0.50 0.51 0.29 0.54 0.52 0.32 0.36 0.41 0.38 0.23 0.18 0.17 0.09 0.10 0.16 0.22 0.21 0.40 0.63 0.62
2.49 2.59 1.76 1.81 1.75 1.72 1.68 2.16 2.29 2.36 2.08 1.74 1.50 1.49 1.44 1.47 1.37 1.30 1.18 0.94 0.81 0.68 0.59 0.51 0.39 0.54 0.50 0.54 0.39 0.31 0.31 0.32 0.39 0.19 0.18 0.21 0.22 0.17 0.26 0.29 0.27 0.38 0.33
1.64 2.38 3.15 2.44 2.29 2.33 2.54 2.63 2.90 2.82 2.95 2.67 2.62 2.27 1.82 1.62 1.60 1.33 1.14 0.93 0.82 0.56 0.55 0.66 0.78 0.93 0.81 0.72 0.62 0.57 0.45 0.27 0.17 0.20 0.17 0.16 0.14 0.15 0.21 0.29 0.48 0.49 0.52
0.89 1.05 0.97 1.13 1.27 1.58 1.67 1.36 1.43 1.67 1.57 1.60 1.54 1.44 1.44 1.30 1.01 0.93 0.88 0.65 0.59 0.44 0.40 0.46 0.50 0.61 0.54 0.47 0.44 0.39 0.35 0.28 0.21 0.23 0.20 0.19 0.18 0.23 0.27 0.43 0.44 0.39 0.46
0.69 0.82 0.63 0.63 0.71 0.67 0.85 1.01 0.79 0.91 0.89 0.81 0.88 1.00 1.05 0.94 0.75 0.76 0.98 1.01 0.87 0.60 0.56 0.41 0.38 0.32 0.31 0.26 0.29 0.29 0.22 0.23 0.23 0.20 0.21 0.23 0.34 0.47 0.50 0.55 0.52 0.66 0.68
0.40 0.67 0.64 0.59 0.62 0.61 0.70 0.93 1.15 1.06 0.93 0.96 1.04 1.05 0.95 0.93 1.09 1.30 1.40 1.53 1.53 1.63 1.51 1.00 0.84 0.63 0.59 0.41 0.34 0.32 0.31 0.31 0.34 0.55 0.74 0.83 0.83 0.89 0.77 0.83 0.94 1.09 1.21
0.48 0.73 0.76 0.71 0.75 0.81 1.04 1.21 1.38 1.35 1.37 1.46 1.56 1.44 1.69 2.23 2.87 2.77 3.16 3.40 3.26 3.08 2.59 1.98 1.54 1.01 0.80 0.78 0.82 0.69 0.54 0.45 0.45 0.82 0.99 0.98 1.00 0.92 0.84 0.93 0.95 0.86 0.84
0.46 0.49 0.44 0.51 0.77 0.82 0.95 0.95 0.94 1.08 1.10 1.14 1.43 1.60 1.57 1.33 1.22 1.35 1.69 1.74 1.67 1.44 0.90 0.62 0.54 0.53 0.58 0.75 0.80 0.72 0.65 0.57 0.73 1.04 1.18 1.06 0.99 0.91 1.00 0.92 0.94 0.94 0.87
0.78 1.05 1.05 0.82 0.73 0.64 0.70 0.78 1.00 1.03 0.96 0.81 0.63 0.63 0.51 0.53 0.76 0.86 1.05 0.81 0.45 0.43 0.28 0.37 0.28 0.37 0.37 0.35 0.40 0.44 0.43 0.56 0.80 1.00 1.01 0.90 1.00 1.02 0.88 0.78 0.97 1.08 1.03
1.28 0.90 1.02 1.41 1.55 1.35 1.24 1.04 0.62 0.39 0.41 0.34 0.37 0.45 0.55 0.57 0.74 0.77 0.72 0.46 0.40 0.37 0.47 0.49 0.52 0.72 0.71 0.65 0.69 0.65 0.63 1.00 1.26 1.55 1.82 1.82 1.95 2.25 2.34 2.54 3.13 3.82 3.75
1.76 2.35 1.99 1.77 1.86 1.84 1.87 1.99 1.75 1.40 1.27 1.01 0.92 0.82 0.87 0.92 0.82 0.87 0.85 0.96 0.85 0.90 1.10 1.08 1.04 1.08 1.12 1.12 1.33 1.47 1.45 1.64 1.74 2.05 2.28 2.38 2.77 3.27 3.59 3.81 3.50 3.02 2.57
1.41 1.36 1.45 1.45 1.80 2.03 2.03 2.15 2.15 2.09 2.07 2.02 2.09 2.14 2.31 2.19 1.73 1.67 1.73 1.80 1.59 1.60 1.98 2.28 2.67 3.20 3.36 3.49 3.55 3.61 3.44 3.41 3.42 3.45 3.97 4.11 4.03 3.88 3.70 3.02 2.47 2.32 2.17
0.55 0.89 1.08 1.31 0.84 0.78 0.79 0.74 0.88 0.93 0.98 1.15 1.14 1.33 1.61 1.59 1.38 1.51 1.49 1.44 1.46 1.65 1.92 1.98 2.05 2.16 2.28 2.50 2.49 2.12 1.77 2.00 2.13 2.27 2.31 2.35 2.31 2.38 2.60 2.43 2.04 1.78 1.64
0.28 0.40 0.48 0.80 1.32 1.29 1.40 1.25 1.05 0.74 0.71 0.73 0.88 0.66 0.43 0.46 0.41 0.43 0.43 0.43 0.44 0.42 0.55 0.53 0.51 0.44 0.32 0.31 0.35 0.32 0.26 0.28 0.33 0.46 0.54 0.64 0.78 0.82 0.87 0.77 0.70 0.64 0.64
0.12 0.49 0.87 0.70 0.64 0.67 0.64 1.15 1.93 2.20 1.91 1.64 1.32 1.20 1.13 0.82 0.71 0.78 0.82 0.64 0.57 0.55 0.45 0.44 0.33 0.31 0.25 0.28 0.31 0.31 0.30 0.39 0.41 0.32 0.29 0.31 0.30 0.43 0.33 0.36 0.40 0.40 0.42
0.13 0.16 0.44 0.94 1.08 0.93 0.95 0.89 0.73 0.72 0.89 1.13 1.36 1.22 1.15 1.08 0.94 0.82 0.70 0.64 0.65 0.75 0.58 0.50 0.42 0.38 0.34 0.28 0.23 0.21 0.28 0.32 0.27 0.34 0.30 0.27 0.25 0.26 0.28 0.26 0.23 0.25 0.22
0.20 0.21 0.22 0.27 0.46 0.62 0.73 0.86 1.21 1.43 1.00 0.70 0.70 0.81 0.99 1.04 0.94 0.85 0.83 0.85 0.80 0.78 0.80 0.74 0.69 0.62 0.55 0.51 0.49 0.47 0.40 0.30 0.29 0.31 0.26 0.21 0.22 0.25 0.25 0.23 0.23 0.24 0.24

GFSGL_prec_precacc_153.txt.gz
Total_Precipitation_Accumulation
0.02 0.01 0.10 0.06 0.08 0.09 0.16 0.22 0.22 0.37 0.56 0.63 0.88 0.67 0.53 0.40 0.37 0.72 0.61 0.36 0.45 0.32 0.14 0.19 0.12 0.09 0.06 0.13 0.18 0.18 0.32 0.29 0.15 0.06 0.08 0.10 0.17 0.28 0.22 0.23 0.22 0.09 0.00
0.27 0.11 0.18 0.14 0.09 0.05 0.14 0.10 0.14 0.25 0.41 0.44 0.46 0.69 0.57 0.38 0.47 0.88 0.56 0.39 0.63 0.41 0.19 0.16 0.18 0.07 0.18 0.09 0.07 0.22 0.19 0.23 0.20 0.15 0.16 0.24 0.40 0.28 0.32 0.36 0.20 0.05 0.01
0.71 0.73 0.72 0.41 0.22 0.12 0.07 0.10 0.16 0.22 0.20 0.23 0.43 0.88 0.75 0.49 0.58 0.62 0.92 0.75 0.47 0.52 0.38 0.39 0.40 0.29 0.44 0.28 0.29 0.20 0.10 0.25 0.33 0.27 0.15 0.09 0.20 0.27 0.46 0.49 0.35 0.16 0.03
1.24 1.28 0.96 0.66 0.33 0.22 0.27 0.28 0.18 0.19 0.13 0.16 0.24 0.47 0.62 0.63 0.40 0.54 0.91 0.84 0.61 0.56 0.80 0.63 0.42 0.47 0.84 0.81 0.56 0.67 0.44 0.55 0.66 0.57 0.41 0.21 0.25 0.34 0.57 0.67 0.87 0.46 0.16
2.02 1.76 1.68 1.19 0.90 0.90 0.92 0.87 0.72 0.63 0.42 0.25 0.24 0.45 0.80 0.78 0.55 0.72 0.82 0.68 0.77 0.61 0.78 0.72 0.63 1.10 1.11 1.04 0.89 0.95 0.97 0.85 0.76 0.60 0.40 0.32 0.34 0.58 0.91 0.87 0.70 0.56 0.36
2.14 2.03 1.60 1.22 1.17 1.50 1.59 2.04 1.50 1.39 1.29 0.98 0.72 0.70 0.78 0.59 0.93 0.98 0.65 0.89 0.87 0.81 0.90 0.77 0.78 1.00 1.09 0.78 0.40 0.34 0.58 0.69 0.84 0.74 0.51 0.48 0.61 0.68 0.49 0.38 0.51 0.51 0.61
2.06 2.03 2.07 1.96 1.74 1.59 1.77 2.02 2.04 2.32 2.03 1.76 1.55 1.44 1.27 1.11 1.03 0.78 0.87 0.75 0.93 0.98 0.91 0.82 0.79 0.61 0.81 0.54 0.62 0.42 0.37 0.44 0.47 0.50 0.41 0.47 0.47 0.56 0.49 0.43 0.62 0.60 0.54
2.54 2.61 1.91 2.15 2.56 2.39 1.97 1.95 2.31 2.26 2.05 1.92 1.67 1.72 1.64 1.51 1.24 1.11 1.27 0.84 0.60 0.72 0.85 0.68 0.68 0.69 0.62 0.68 0.56 0.54 0.45 0.42 0.47 0.30 0.23 0.25 0.36 0.27 0.20 0.32 0.43 0.39 0.42
2.28 2.21 2.22 2.30 2.66 2.90 2.72 2.32 2.25 2.32 2.21 2.19 2.34 2.40 2.06 1.58 1.55 1.12 1.15 1.06 0.73 0.83 0.97 0.77 0.61 0.49 0.75 0.76 0.55 0.48 0.48 0.31 0.32 0.24 0.11 0.08 0.10 0.12 0.08 0.07 0.27 0.58 0.63
1.85 1.89 1.55 1.55 1.67 1.79 2.05 2.14 2.04 2.13 2.15 1.80 1.48 1.17 1.22 1.24 1.30 1.15 1.05 0.72 0.56 0.56 0.50 0.50 0.51 0.29 0.54 0.52 0.34 0.36 0.41 0.38 0.23 0.18 0.17 0.09 0.10 0.16 0.22 0.21 0.40 0.64 0.62
2.50 2.59 1.77 1.83 1.76 1.72 1.70 2.21 2.42 2.53 2.19 1.79 1.56 1.57 1.50 1.51 1.41 1.32 1.19 0.94 0.81 0.68 0.59 0.51 0.39 0.54 0.50 0.54 0.39 0.31 0.31 0.32 0.39 0.19 0.18 0.21 0.22 0.17 0.26 0.29 0.27 0.38 0.33
1.66 2.38 3.15 2.45 2.30 2.35 2.56 2.65 2.94 2.88 2.99 2.68 2.64 2.30 1.84 1.63 1.62 1.36 1.16 0.93 0.82 0.56 0.55 0.66 0.78 0.93 0.81 0.72 0.62 0.57 0.45 0.27 0.17 0.20 0.17 0.16 0.14 0.15 0.21 0.29 0.48 0.49 0.52
0.94 1.05 0.98 1.14 1.28 1.59 1.68 1.37 1.44 1.69 1.58 1.61 1.56 1.45 1.47 1.34 1.06 1.00 0.93 0.69 0.62 0.47 0.41 0.47 0.50 0.61 0.54 0.47 0.44 0.39 0.35 0.28 0.21 0.23 0.20 0.19 0.18 0.23 0.27 0.43 0.44 0.39 0.46
0.76 0.83 0.63 0.63 0.72 0.68 0.85 1.01 0.80 0.97 1.00 0.97 1.00 1.05 1.08 0.98 0.79 0.82 1.06 1.09 0.95 0.64 0.59 0.43 0.39 0.33 0.31 0.26 0.30 0.30 0.23 0.23 0.23 0.20 0.21 0.23 0.34 0.47 0.50 0.55 0.52 0.66 0.68
0.41 0.68 0.64 0.59 0.62 0.61 0.70 0.93 1.16 1.09 1.04 1.18 1.37 1.41 1.28 1.17 1.30 1.51 1.53 1.60 1.59 1.69 1.55 1.02 0.86 0.64 0.60 0.42 0.34 0.32 0.31 0.31 0.34 0.55 0.74 0.83 0.83 0.89 0.77 0.83 0.94 1.09 1.21
0.49 0.77 0.82 0.71 0.77 0.84 1.06 1.21 1.38 1.35 1.38 1.51 1.66 1.55 1.80 2.32 2.97 2.85 3.23 3.45 3.31 3.13 2.63 2.02 1.56 1.02 0.80 0.78 0.82 0.69 0.54 0.45 0.45 0.82 0.99 0.98 1.00 0.92 0.84 0.93 0.95 0.86 0.84
0.49 0.55 0.53 0.54 0.78 0.86 1.01 0.98 0.96 1.10 1.12 1.15 1.45 1.62 1.61 1.37 1.24 1.37 1.70 1.74 1.67 1.44 0.90 0.62 0.54 0.53 0.58 0.75 0.80 0.72 0.65 0.57 0.73 1.04 1.18 1.06 0.99 0.91 1.00 0.92 0.94 0.94 0.87
0.78 1.09 1.17 0.92 0.75 0.66 0.72 0.83 1.04 1.09 1.04 0.85 0.64 0.64 0.53 0.58 0.80 0.88 1.07 0.82 0.45 0.43 0.28 0.37 0.28 0.37 0.37 0.35 0.40 0.44 0.43 0.56 0.80 1.00 1.01 0.90 1.00 1.02 0.88 0.78 0.97 1.08 1.03
1.28 0.90 1.05 1.45 1.60 1.40 1.28 1.09 0.67 0.44 0.44 0.37 0.38 0.46 0.56 0.61 0.78 0.79 0.73 0.46 0.40 0.37 0.47 0.49 0.52 0.72 0.71 0.65 0.69 0.65 0.63 1.00 1.26 1.55 1.82 1.82 1.95 2.25 2.34 2.54 3.13 3.82 3.75
1.76 2.35 2.01 1.82 1.92 1.91 1.95 2.05 1.79 1.43 1.29 1.04 0.93 0.83 0.87 0.92 0.83 0.87 0.85 0.96 0.85 0.90 1.10 1.08 1.04 1.08 1.12 1.12 1.33 1.47 1.45 1.64 1.74 2.05 2.28 2.38 2.77 3.27 3.59 3.81 3.50 3.02 2.57
1.41 1.36 1.45 1.46 1.83 2.06 2.08 2.19 2.18 2.11 2.08 2.03 2.10 2.14 2.31 2.19 1.73 1.67 1.73 1.80 1.59 1.60 1.98 2.28 2.67 3.20 3.36 3.49 3.55 3.61 3.44 3.41 3.42 3.45 3.97 4.11 4.03 3.88 3.70 3.02 2.47 2.32 2.17
0.55 0.90 1.09 1.31 0.84 0.79 0.79 0.74 0.88 0.93 0.98 1.15 1.14 1.33 1.61 1.59 1.38 1.51 1.49 1.44 1.46 1.65 1.92 1.98 2.05 2.16 2.28 2.50 2.49 2.12 1.77 2.00 2.13 2.27 2.31 2.35 2.31 2.38 2.60 2.43 2.04 1.78 1.64
0.28 0.40 0.48 0.80 1.32 1.29 1.40 1.25 1.05 0.74 0.71 0.73 0.88 0.66 0.43 0.46 0.41 0.43 0.43 0.43 0.44 0.42 0.55 0.53 0.51 0.44 0.32 0.31 0.35 0.32 0.26 0.28 0.33 0.46 0.54 0.64 0.78 0.82 0.87 0.77 0.70 0.64 0.64
0.12 0.49 0.87 0.70 0.64 0.67 0.64 1.15 1.93 2.20 1.91 1.64 1.32 1.20 1.13 0.82 0.71 0.78 0.82 0.64 0.57 0.55 0.45 0.44 0.33 0.31 0.25 0.28 0.31 0.31 0.30 0.39 0.41 0.32 0.29 0.31 0.30 0.43 0.33 0.36 0.40 0.40 0.42
0.13 0.16 0.44 0.94 1.08 0.93 0.95 0.89 0.73 0.72 0.89 1.13 1.36 1.22 1.15 1.08 0.94 0.82 0.70 0.64 0.65 0.75 0.58 0.50 0.42 0.38 0.34 0.28 0.23 0.21 0.28 0.32 0.27 0.34 0.30 0.27 0.25 0.26 0.28 0.26 0.23 0.25 0.22
0.20 0.21 0.22 0.27 0.46 0.62 0.73 0.86 1.21 1.43 1.00 0.70 0.70 0.81 0.99 1.04 0.94 0.85 0.83 0.85 0.80 0.78 0.80 0.74 0.69 0.62 0.55 0.51 0.49 0.47 0.40 0.30 0.29 0.31 0.26 0.21 0.22 0.25 0.25 0.23 0.23 0.24 0.24